CW2988 Weather Reports


Display with metric or nautical units.
time (UTC)temp
F
wind
direction
speed
MPH
gust
MPH
rain 1hr
in
rain 24hr
in
rain mn
in
humidity
%
barometer
mb
20200807005833 75 152 3.0 5.0 0.00 0.00 0.00 68 1016.4
20200807005730 75 129 3.0 5.0 0.00 0.00 0.00 68 1016.4
20200807005627 75 117 3.0 5.0 0.00 0.00 0.00 68 1016.4
20200807005543 75 129 3.0 5.0 0.00 0.00 0.00 68 1016.4
20200807005443 75 103 2.0 5.0 0.00 0.00 0.00 68 1016.4
20200807005335 75 146 3.0 5.0 0.00 0.00 0.00 67 1016.4
20200807005227 75 143 2.0 5.0 0.00 0.00 0.00 67 1016.4
20200807005142 75 169 3.0 5.0 0.00 0.00 0.00 67 1016.4
20200807005040 76 136 2.0 5.0 0.00 0.00 0.00 67 1016.4
20200807004938 76 148 2.0 4.0 0.00 0.00 0.00 67 1016.4
20200807004833 76 148 2.0 4.0 0.00 0.00 0.00 67 1016.4
20200807004726 76 175 3.0 4.0 0.00 0.00 0.00 66 1016.4
20200807004641 76 139 3.0 4.0 0.00 0.00 0.00 66 1016.4
20200807004537 76 132 3.0 4.0 0.00 0.00 0.00 66 1016.4
20200807004438 76 140 2.0 4.0 0.00 0.00 0.00 66 1016.4
20200807004333 76 123 2.0 4.0 0.00 0.00 0.00 66 1016.4
20200807004228 76 154 2.0 4.0 0.00 0.00 0.00 66 1016.4
20200807004141 76 140 2.0 4.0 0.00 0.00 0.00 66 1016.4
20200807004035 76 140 2.0 4.0 0.00 0.00 0.00 66 1016.4
20200807003932 76 148 2.0 4.0 0.00 0.00 0.00 66 1016.4
20200807003827 76 143 2.0 5.0 0.00 0.00 0.00 66 1016.4
20200807003741 76 150 2.0 5.0 0.00 0.00 0.00 65 1016.4
20200807003637 76 144 2.0 5.0 0.00 0.00 0.00 65 1016.4
20200807003538 76 164 2.0 5.0 0.00 0.00 0.00 65 1016.4
20200807003432 76 144 2.0 5.0 0.00 0.00 0.00 65 1016.4
20200807003345 76 174 2.0 6.0 0.00 0.00 0.00 65 1016.4
20200807003239 76 98 2.0 6.0 0.00 0.00 0.00 65 1016.4
20200807003136 76 163 2.0 6.0 0.00 0.00 0.00 65 1016.4
20200807003029 76 130 3.0 6.0 0.00 0.00 0.00 64 1016.4
20200807002925 77 140 2.0 9.0 0.00 0.00 0.00 64 1016.4
20200807002842 77 115 2.0 9.0 0.00 0.00 0.00 64 1016.4
20200807002738 77 131 2.0 9.0 0.00 0.00 0.00 64 1016.4
20200807002632 77 130 2.0 9.0 0.00 0.00 0.00 64 1016.4
20200807002527 77 134 3.0 9.0 0.00 0.00 0.00 64 1016.4
20200807002441 77 138 3.0 9.0 0.00 0.00 0.00 64 1016.4
20200807002338 77 143 3.0 9.0 0.00 0.00 0.00 63 1016.4
20200807002231 77 140 4.0 9.0 0.00 0.00 0.00 63 1016.4
20200807002131 77 148 3.0 9.0 0.00 0.00 0.00 63 1016.3
20200807002026 77 103 4.0 9.0 0.00 0.00 0.00 63 1016.3
20200807001940 77 128 4.0 9.0 0.00 0.00 0.00 63 1016.3
20200807001838 77 146 4.0 8.0 0.00 0.00 0.00 63 1016.3
20200807001731 77 134 4.0 8.0 0.00 0.00 0.00 63 1016.3
20200807001644 77 158 3.0 8.0 0.00 0.00 0.00 63 1016.4
20200807001538 77 114 2.0 10.0 0.00 0.00 0.00 63 1016.4
20200807001435 77 113 3.0 10.0 0.00 0.00 0.00 63 1016.4
20200807001332 77 163 4.0 10.0 0.00 0.00 0.00 62 1016.4
20200807001229 77 132 4.0 10.0 0.00 0.00 0.00 62 1016.3
20200807001144 77 169 4.0 10.0 0.00 0.00 0.00 62 1016.4
20200807001038 77 134 4.0 10.0 0.00 0.00 0.00 62 1016.4
20200807000934 77 130 5.0 10.0 0.00 0.00 0.00 62 1016.4
20200807000829 77 111 4.0 10.0 0.00 0.00 0.00 62 1016.3
20200807000744 77 180 5.0 10.0 0.00 0.00 0.00 62 1016.3
20200807000643 78 123 4.0 10.0 0.00 0.00 0.00 62 1016.3
20200807000539 78 138 4.0 8.0 0.00 0.00 0.00 62 1016.4
20200807000434 78 144 3.0 8.0 0.00 0.00 0.00 62 1016.3
20200807000331 78 158 3.0 8.0 0.00 0.00 0.00 62 1016.4
20200807000225 78 126 2.0 8.0 0.00 0.00 0.00 62 1016.3
20200807000140 78 169 3.0 8.0 0.00 0.00 0.00 62 1016.3
20200807000038 78 155 4.0 9.0 0.00 0.00 0.00 62 1016.3
20200806235938 78 125 5.0 9.0 0.00 0.00 0.00 62 1016.3
20200806235832 78 126 5.0 9.0 0.00 0.00 0.00 62 1016.3
20200806235728 78 104 5.0 9.0 0.00 0.00 0.00 62 1016.3
20200806235645 78 133 5.0 9.0 0.00 0.00 0.00 62 1016.4
20200806235538 78 134 4.0 9.0 0.00 0.00 0.00 62 1016.4
20200806235434 78 142 4.0 9.0 0.00 0.00 0.00 62 1016.4
20200806235328 78 135 5.0 9.0 0.00 0.00 0.00 62 1016.4
20200806235229 78 107 5.0 9.0 0.00 0.00 0.00 62 1016.4
20200806235125 78 131 5.0 9.0 0.00 0.00 0.00 62 1016.4
20200806235041 78 131 4.0 8.0 0.00 0.00 0.00 62 1016.4
20200806234936 78 150 3.0 7.0 0.00 0.00 0.00 62 1016.4
20200806234832 78 154 4.0 7.0 0.00 0.00 0.00 62 1016.4
20200806234728 78 165 3.0 10.0 0.00 0.00 0.00 62 1016.4
20200806234643 78 141 2.0 10.0 0.00 0.00 0.00 61 1016.4
20200806234537 78 121 2.0 10.0 0.00 0.00 0.00 61 1016.5
20200806234436 78 171 2.0 10.0 0.00 0.00 0.00 61 1016.5
20200806234332 78 142 3.0 10.0 0.00 0.00 0.00 61 1016.5
20200806234226 78 155 3.0 10.0 0.00 0.00 0.00 61 1016.5
20200806234142 78 159 3.0 10.0 0.00 0.00 0.00 61 1016.5
20200806234050 78 161 4.0 10.0 0.00 0.00 0.00 60 1016.5
20200806233933 78 146 5.0 10.0 0.00 0.00 0.00 60 1016.5
20200806233828 78 117 5.0 8.0 0.00 0.00 0.00 60 1016.5
20200806233727 78 138 3.0 8.0 0.00 0.00 0.00 60 1016.5
20200806233641 78 124 3.0 8.0 0.00 0.00 0.00 60 1016.5
20200806233537 78 151 2.0 8.0 0.00 0.00 0.00 60 1016.5
20200806233442 79 144 3.0 8.0 0.00 0.00 0.00 60 1016.5
20200806233345 79 142 4.0 8.0 0.00 0.00 0.00 60 1016.5
20200806233239 79 188 4.0 8.0 0.00 0.00 0.00 59 1016.5
20200806233133 79 135 4.0 8.0 0.00 0.00 0.00 59 1016.6
20200806233033 79 150 4.0 8.0 0.00 0.00 0.00 59 1016.6
20200806232928 79 140 3.0 8.0 0.00 0.00 0.00 59 1016.5
20200806232844 79 145 3.0 8.0 0.00 0.00 0.00 59 1016.5
20200806232740 79 178 3.0 8.0 0.00 0.00 0.00 59 1016.6
20200806232633 79 168 3.0 9.0 0.00 0.00 0.00 59 1016.5
20200806232530 79 157 4.0 9.0 0.00 0.00 0.00 59 1016.5
20200806232443 79 154 4.0 9.0 0.00 0.00 0.00 59 1016.5
20200806232339 79 159 3.0 9.0 0.00 0.00 0.00 59 1016.5
20200806232240 79 165 4.0 9.0 0.00 0.00 0.00 59 1016.5
20200806232136 79 126 4.0 9.0 0.00 0.00 0.00 59 1016.5
20200806232031 80 161 3.0 8.0 0.00 0.00 0.00 59 1016.5
20200806231943 80 161 3.0 8.0 0.00 0.00 0.00 59 1016.5
20200806231838 80 167 3.0 8.0 0.00 0.00 0.00 59 1016.5
20200806231736 80 90 3.0 8.0 0.00 0.00 0.00 60 1016.5
20200806231628 80 159 3.0 8.0 0.00 0.00 0.00 60 1016.5
20200806231527 80 154 3.0 8.0 0.00 0.00 0.00 60 1016.5
20200806231442 80 161 2.0 8.0 0.00 0.00 0.00 60 1016.6
20200806231336 80 182 3.0 8.0 0.00 0.00 0.00 60 1016.6
20200806231233 80 182 2.0 8.0 0.00 0.00 0.00 60 1016.5
20200806231126 80 135 2.0 6.0 0.00 0.00 0.00 60 1016.6
20200806231040 80 167 2.0 6.0 0.00 0.00 0.00 60 1016.6
20200806230935 80 172 3.0 6.0 0.00 0.00 0.00 60 1016.6
20200806230842 80 173 3.0 6.0 0.00 0.00 0.00 60 1016.6
20200806230727 80 167 2.0 6.0 0.00 0.00 0.00 60 1016.6
20200806230642 80 146 3.0 6.0 0.00 0.00 0.00 60 1016.6
20200806230536 80 175 3.0 6.0 0.00 0.00 0.00 60 1016.5
20200806230431 80 173 3.0 6.0 0.00 0.00 0.00 60 1016.6
20200806230328 80 186 3.0 6.0 0.00 0.00 0.00 60 1016.6
20200806230246 80 181 3.0 6.0 0.00 0.00 0.00 60 1016.6
20200806230143 80 153 3.0 6.0 0.00 0.00 0.00 59 1016.6
20200806230037 80 178 3.0 6.0 0.00 0.00 0.00 59 1016.6
20200806225927 80 173 3.0 6.0 0.00 0.00 0.00 59 1016.6
20200806225843 80 148 3.0 6.0 0.00 0.00 0.00 59 1016.7
20200806225738 80 168 3.0 8.0 0.00 0.00 0.00 59 1016.6
20200806225634 80 165 3.0 8.0 0.00 0.00 0.00 59 1016.7
20200806225526 80 165 3.0 8.0 0.00 0.00 0.00 59 1016.7
20200806225442 80 182 3.0 8.0 0.00 0.00 0.00 59 1016.6
20200806225342 80 192 3.0 8.0 0.00 0.00 0.00 60 1016.7
20200806225236 80 180 3.0 8.0 0.00 0.00 0.00 59 1016.6
20200806225133 80 157 3.0 8.0 0.00 0.00 0.00 59 1016.7
20200806225045 80 146 3.0 8.0 0.00 0.00 0.00 59 1016.7
20200806224939 80 199 3.0 8.0 0.00 0.00 0.00 59 1016.7
20200806224834 80 221 3.0 6.0 0.00 0.00 0.00 59 1016.7
20200806224728 80 155 2.0 9.0 0.00 0.00 0.00 60 1016.7
20200806224628 80 187 2.0 9.0 0.00 0.00 0.00 60 1016.7
20200806224545 80 139 2.0 9.0 0.00 0.00 0.00 59 1016.7
20200806224440 80 186 3.0 10.0 0.00 0.00 0.00 59 1016.7
20200806224334 80 178 3.0 10.0 0.00 0.00 0.00 60 1016.6
20200806224230 80 189 3.0 10.0 0.00 0.00 0.00 60 1016.6
20200806224144 80 170 3.0 12.0 0.00 0.00 0.00 59 1016.6
20200806224041 80 148 3.0 12.0 0.00 0.00 0.00 59 1016.6
20200806223935 80 173 4.0 12.0 0.00 0.00 0.00 57 1016.5
20200806223837 80 155 5.0 12.0 0.00 0.00 0.00 57 1016.5
20200806223729 80 105 5.0 12.0 0.00 0.00 0.00 58 1016.5
20200806223644 80 134 4.0 12.0 0.00 0.00 0.00 57 1016.5
20200806223539 80 128 5.0 12.0 0.00 0.00 0.00 57 1016.5
20200806223435 80 146 5.0 12.0 0.00 0.00 0.00 57 1016.5
20200806223329 80 115 7.0 12.0 0.00 0.00 0.00 57 1016.5
20200806223244 80 157 7.0 12.0 0.00 0.00 0.00 56 1016.5
20200806223144 80 144 8.0 12.0 0.00 0.00 0.00 57 1016.5
20200806223039 80 133 6.0 10.0 0.00 0.00 0.00 57 1016.5
20200806222934 80 123 5.0 10.0 0.00 0.00 0.00 57 1016.6
20200806222831 81 126 5.0 10.0 0.00 0.00 0.00 57 1016.6
20200806222744 81 105 5.0 10.0 0.00 0.00 0.00 57 1016.6
20200806222639 81 126 5.0 10.0 0.00 0.00 0.00 57 1016.6
20200806222534 81 148 5.0 10.0 0.00 0.00 0.00 56 1016.6
20200806222432 81 108 6.0 10.0 0.00 0.00 0.00 56 1016.6
20200806222326 81 155 6.0 10.0 0.00 0.00 0.00 56 1016.6
20200806222239 81 101 5.0 11.0 0.00 0.00 0.00 56 1016.6
20200806222133 81 117 5.0 11.0 0.00 0.00 0.00 56 1016.6
20200806222027 81 115 5.0 11.0 0.00 0.00 0.00 56 1016.6
20200806221942 81 178 6.0 11.0 0.00 0.00 0.00 56 1016.6
20200806221836 81 144 5.0 9.0 0.00 0.00 0.00 56 1016.6
20200806221731 81 129 5.0 11.0 0.00 0.00 0.00 56 1016.6
20200806221630 81 140 5.0 11.0 0.00 0.00 0.00 57 1016.6
20200806221527 81 149 4.0 11.0 0.00 0.00 0.00 56 1016.6
20200806221442 81 169 5.0 11.0 0.00 0.00 0.00 56 1016.6
20200806221338 81 130 6.0 11.0 0.00 0.00 0.00 55 1016.5
20200806221233 81 111 7.0 11.0 0.00 0.00 0.00 55 1016.6
20200806221128 81 111 6.0 11.0 0.00 0.00 0.00 55 1016.6
20200806221042 81 96 6.0 11.0 0.00 0.00 0.00 54 1016.6
20200806220941 82 84 6.0 11.0 0.00 0.00 0.00 55 1016.6
20200806220838 82 105 5.0 11.0 0.00 0.00 0.00 55 1016.5
20200806220732 82 140 5.0 10.0 0.00 0.00 0.00 55 1016.6
20200806220644 82 111 5.0 10.0 0.00 0.00 0.00 55 1016.5
20200806220538 82 130 5.0 10.0 0.00 0.00 0.00 55 1016.6
20200806220436 82 132 4.0 10.0 0.00 0.00 0.00 55 1016.5
20200806220330 82 59 4.0 10.0 0.00 0.00 0.00 55 1016.6
20200806220227 82 144 5.0 10.0 0.00 0.00 0.00 54 1016.6
20200806220145 82 153 5.0 10.0 0.00 0.00 0.00 54 1016.6
20200806220039 82 128 4.0 10.0 0.00 0.00 0.00 55 1016.7
20200806215935 82 132 5.0 10.0 0.00 0.00 0.00 54 1016.7
20200806215829 82 109 6.0 10.0 0.00 0.00 0.00 53 1016.6
20200806215745 82 134 6.0 10.0 0.00 0.00 0.00 54 1016.6
20200806215638 82 159 6.0 10.0 0.00 0.00 0.00 54 1016.6
20200806215532 82 122 5.0 10.0 0.00 0.00 0.00 54 1016.6
20200806215432 82 134 4.0 9.0 0.00 0.00 0.00 54 1016.6
20200806215345 82 153 4.0 8.0 0.00 0.00 0.00 54 1016.6
20200806215238 82 123 5.0 11.0 0.00 0.00 0.00 54 1016.6
20200806215133 82 184 5.0 11.0 0.00 0.00 0.00 55 1016.7
20200806215028 82 89 4.0 11.0 0.00 0.00 0.00 55 1016.7
20200806214944 82 155 4.0 11.0 0.00 0.00 0.00 55 1016.6
20200806214841 82 129 4.0 11.0 0.00 0.00 0.00 55 1016.6
20200806214739 82 133 4.0 11.0 0.00 0.00 0.00 56 1016.6
20200806214634 82 167 3.0 12.0 0.00 0.00 0.00 57 1016.7
20200806214529 82 163 3.0 12.0 0.00 0.00 0.00 55 1016.7
20200806214444 82 135 4.0 12.0 0.00 0.00 0.00 55 1016.7
20200806214339 82 169 4.0 12.0 0.00 0.00 0.00 54 1016.7
20200806214237 82 130 4.0 12.0 0.00 0.00 0.00 54 1016.7
20200806214132 82 132 5.0 12.0 0.00 0.00 0.00 54 1016.7
20200806214029 82 182 7.0 12.0 0.00 0.00 0.00 54 1016.7
20200806213943 82 154 8.0 12.0 0.00 0.00 0.00 54 1016.7
20200806213838 82 124 7.0 12.0 0.00 0.00 0.00 55 1016.8
20200806213732 82 151 5.0 13.0 0.00 0.00 0.00 55 1016.7
20200806213631 82 134 5.0 13.0 0.00 0.00 0.00 55 1016.8
20200806213544 82 109 6.0 13.0 0.00 0.00 0.00 55 1016.8
20200806213436 82 138 5.0 13.0 0.00 0.00 0.00 55 1016.7
20200806213330 82 123 4.0 13.0 0.00 0.00 0.00 56 1016.8
20200806213236 82 123 5.0 13.0 0.00 0.00 0.00 55 1016.8
20200806213125 82 112 5.0 13.0 0.00 0.00 0.00 54 1016.8
20200806213045 82 119 6.0 13.0 0.00 0.00 0.00 54 1016.8
20200806212935 82 134 7.0 13.0 0.00 0.00 0.00 55 1016.8
20200806212834 82 144 6.0 13.0 0.00 0.00 0.00 56 1016.8
20200806212727 82 163 4.0 12.0 0.00 0.00 0.00 57 1016.8
20200806212640 81 154 4.0 12.0 0.00 0.00 0.00 57 1016.8
20200806212542 81 171 5.0 12.0 0.00 0.00 0.00 56 1016.8
20200806212439 81 175 4.0 12.0 0.00 0.00 0.00 56 1016.8
20200806212333 81 127 4.0 12.0 0.00 0.00 0.00 55 1016.8
20200806212228 81 132 5.0 12.0 0.00 0.00 0.00 55 1016.8
20200806212143 81 136 6.0 12.0 0.00 0.00 0.00 55 1016.9
20200806212040 81 152 6.0 12.0 0.00 0.00 0.00 55 1016.9
20200806211937 81 71 5.0 9.0 0.00 0.00 0.00 55 1016.9
20200806211838 81 130 5.0 9.0 0.00 0.00 0.00 55 1016.8
20200806211731 81 130 5.0 9.0 0.00 0.00 0.00 55 1016.8
20200806211626 81 119 4.0 9.0 0.00 0.00 0.00 55 1016.8
20200806211540 81 139 4.0 10.0 0.00 0.00 0.00 55 1016.8
20200806211434 81 153 4.0 10.0 0.00 0.00 0.00 55 1016.9
20200806211328 81 159 6.0 11.0 0.00 0.00 0.00 55 1016.9
20200806211243 81 135 6.0 11.0 0.00 0.00 0.00 55 1016.9
20200806211137 81 102 5.0 11.0 0.00 0.00 0.00 54 1016.8
20200806211034 81 96 4.0 11.0 0.00 0.00 0.00 54 1016.9
20200806210930 81 121 4.0 11.0 0.00 0.00 0.00 54 1016.9
20200806210844 81 105 5.0 11.0 0.00 0.00 0.00 53 1016.9
20200806210739 81 170 5.0 11.0 0.00 0.00 0.00 54 1016.9
20200806210634 81 138 6.0 11.0 0.00 0.00 0.00 54 1016.9
20200806210529 81 107 7.0 11.0 0.00 0.00 0.00 53 1016.8
20200806210442 81 82 6.0 11.0 0.00 0.00 0.00 53 1016.8
20200806210341 82 145 4.0 10.0 0.00 0.00 0.00 52 1016.8
20200806210240 82 140 6.0 12.0 0.00 0.00 0.00 52 1016.8
20200806210157 82 135 6.0 12.0 0.00 0.00 0.00 53 1016.8
20200806210047 82 98 4.0 12.0 0.00 0.00 0.00 54 1016.8
20200806205938 82 110 4.0 12.0 0.00 0.00 0.00 54 1017.0
20200806205831 82 90 4.0 12.0 0.00 0.00 0.00 54 1017.0
20200806205727 82 125 4.0 12.0 0.00 0.00 0.00 54 1016.9
20200806205629 81 40 3.0 12.0 0.00 0.00 0.00 53 1016.9
20200806205540 81 119 4.0 12.0 0.00 0.00 0.00 53 1017.0
20200806205437 81 105 5.0 12.0 0.00 0.00 0.00 53 1017.0
20200806205333 81 120 6.0 12.0 0.00 0.00 0.00 53 1017.1
20200806205229 81 146 6.0 11.0 0.00 0.00 0.00 54 1017.0
20200806205143 81 95 6.0 11.0 0.00 0.00 0.00 53 1017.1
20200806205038 81 104 5.0 10.0 0.00 0.00 0.00 53 1017.0
20200806204935 81 137 5.0 10.0 0.00 0.00 0.00 53 1017.0
20200806204833 81 134 5.0 10.0 0.00 0.00 0.00 53 1017.1
20200806204726 81 139 4.0 10.0 0.00 0.00 0.00 55 1017.1
20200806204640 81 148 4.0 10.0 0.00 0.00 0.00 54 1017.1
20200806204534 81 160 5.0 10.0 0.00 0.00 0.00 53 1017.1
20200806204429 81 107 6.0 10.0 0.00 0.00 0.00 53 1017.2
20200806204343 81 147 6.0 11.0 0.00 0.00 0.00 53 1017.2
20200806204238 81 92 5.0 11.0 0.00 0.00 0.00 53 1017.1
20200806204137 81 148 4.0 11.0 0.00 0.00 0.00 54 1017.1
20200806204032 81 55 4.0 11.0 0.00 0.00 0.00 54 1017.1
20200806203926 81 167 6.0 11.0 0.00 0.00 0.00 53 1017.1
20200806203843 81 139 6.0 11.0 0.00 0.00 0.00 53 1017.1
20200806203735 81 83 5.0 11.0 0.00 0.00 0.00 52 1017.0
20200806203631 81 121 6.0 11.0 0.00 0.00 0.00 52 1017.1
20200806203543 81 121 6.0 11.0 0.00 0.00 0.00 52 1017.1
20200806203437 81 97 6.0 11.0 0.00 0.00 0.00 52 1017.1
20200806203336 82 184 6.0 11.0 0.00 0.00 0.00 52 1017.1
20200806203232 82 117 6.0 11.0 0.00 0.00 0.00 51 1017.2
20200806203126 82 129 7.0 11.0 0.00 0.00 0.00 51 1017.3
20200806203042 82 157 7.0 11.0 0.00 0.00 0.00 52 1017.3
20200806202937 82 196 7.0 13.0 0.00 0.00 0.00 52 1017.3
20200806202831 82 161 8.0 13.0 0.00 0.00 0.00 51 1017.2
20200806202744 82 121 8.0 13.0 0.00 0.00 0.00 51 1017.2
20200806202642 82 135 8.0 11.0 0.00 0.00 0.00 52 1017.2
20200806202536 82 139 8.0 14.0 0.00 0.00 0.00 51 1017.2
20200806202433 82 121 7.0 14.0 0.00 0.00 0.00 51 1017.3
20200806202327 82 123 5.0 14.0 0.00 0.00 0.00 51 1017.3
20200806202242 82 134 5.0 14.0 0.00 0.00 0.00 52 1017.4
20200806202140 82 134 5.0 14.0 0.00 0.00 0.00 51 1017.4
20200806202035 82 134 6.0 14.0 0.00 0.00 0.00 50 1017.4
20200806201931 82 132 6.0 14.0 0.00 0.00 0.00 50 1017.4
20200806201826 83 127 5.0 14.0 0.00 0.00 0.00 50 1017.4
20200806201742 83 143 4.0 14.0 0.00 0.00 0.00 50 1017.5
20200806201635 83 128 4.0 11.0 0.00 0.00 0.00 50 1017.4
20200806201529 83 112 4.0 10.0 0.00 0.00 0.00 50 1017.4
20200806201446 83 145 5.0 10.0 0.00 0.00 0.00 49 1017.5
20200806201339 83 99 5.0 10.0 0.00 0.00 0.00 49 1017.5
20200806201233 83 90 4.0 10.0 0.00 0.00 0.00 49 1017.5
20200806201133 83 124 4.0 10.0 0.00 0.00 0.00 49 1017.5
20200806201027 83 89 6.0 10.0 0.00 0.00 0.00 49 1017.5
20200806200943 83 117 6.0 10.0 0.00 0.00 0.00 48 1017.6
20200806200836 84 144 5.0 10.0 0.00 0.00 0.00 47 1017.6
20200806200729 84 128 5.0 10.0 0.00 0.00 0.00 48 1017.6
20200806200625 84 129 5.0 10.0 0.00 0.00 0.00 48 1017.6
20200806200540 84 166 5.0 10.0 0.00 0.00 0.00 48 1017.6
20200806200438 84 190 5.0 10.0 0.00 0.00 0.00 49 1017.7
20200806200332 84 153 3.0 10.0 0.00 0.00 0.00 49 1017.7
20200806200229 84 156 3.0 8.0 0.00 0.00 0.00 50 1017.7
20200806200143 84 129 3.0 8.0 0.00 0.00 0.00 49 1017.8
20200806200039 84 175 4.0 10.0 0.00 0.00 0.00 49 1017.8
20200806195934 85 136 4.0 10.0 0.00 0.00 0.00 49 1017.8
20200806195829 85 151 3.0 11.0 0.00 0.00 0.00 49 1017.9
20200806195728 85 158 4.0 11.0 0.00 0.00 0.00 48 1017.9
20200806195642 85 178 4.0 11.0 0.00 0.00 0.00 48 1017.8
20200806195540 85 159 5.0 11.0 0.00 0.00 0.00 49 1017.9
20200806195430 85 156 4.0 14.0 0.00 0.00 0.00 49 1017.8
20200806195326 85 174 4.0 14.0 0.00 0.00 0.00 49 1017.8
20200806195239 85 190 5.0 14.0 0.00 0.00 0.00 49 1017.8
20200806195133 85 106 5.0 14.0 0.00 0.00 0.00 49 1017.8
20200806195027 85 176 4.0 14.0 0.00 0.00 0.00 48 1017.8
20200806194925 85 140 5.0 14.0 0.00 0.00 0.00 48 1017.7
20200806194842 85 139 6.0 14.0 0.00 0.00 0.00 47 1017.7
20200806194736 85 150 7.0 14.0 0.00 0.00 0.00 46 1017.7
20200806194631 85 142 7.0 14.0 0.00 0.00 0.00 47 1017.7
20200806194544 85 134 6.0 13.0 0.00 0.00 0.00 49 1017.7
20200806194438 85 152 7.0 13.0 0.00 0.00 0.00 47 1017.7
20200806194336 85 135 6.0 13.0 0.00 0.00 0.00 48 1017.7
20200806194234 85 114 6.0 13.0 0.00 0.00 0.00 48 1017.7
20200806194128 85 189 6.0 13.0 0.00 0.00 0.00 48 1017.7
20200806194041 85 189 7.0 13.0 0.00 0.00 0.00 48 1017.7
20200806193935 85 30 7.0 13.0 0.00 0.00 0.00 48 1017.7
20200806193829 85 134 8.0 13.0 0.00 0.00 0.00 48 1017.7
20200806193743 85 157 9.0 13.0 0.00 0.00 0.00 48 1017.7
20200806193637 85 96 8.0 13.0 0.00 0.00 0.00 48 1017.7
20200806193532 85 123 7.0 15.0 0.00 0.00 0.00 48 1017.7
20200806193430 85 130 8.0 15.0 0.00 0.00 0.00 48 1017.7
20200806193326 85 124 6.0 15.0 0.00 0.00 0.00 49 1017.8
20200806193244 85 155 5.0 15.0 0.00 0.00 0.00 49 1017.7
20200806193135 85 199 4.0 15.0 0.00 0.00 0.00 49 1017.7
20200806193031 85 150 6.0 15.0 0.00 0.00 0.00 48 1017.7
20200806192926 85 136 8.0 15.0 0.00 0.00 0.00 47 1017.7
20200806192840 85 159 8.0 15.0 0.00 0.00 0.00 47 1017.7
20200806192738 85 115 7.0 14.0 0.00 0.00 0.00 48 1017.6
20200806192634 85 133 6.0 12.0 0.00 0.00 0.00 47 1017.7
20200806192528 85 149 7.0 12.0 0.00 0.00 0.00 47 1017.7
20200806192441 85 119 7.0 12.0 0.00 0.00 0.00 46 1017.7
20200806192336 85 119 6.0 12.0 0.00 0.00 0.00 47 1017.7
20200806192232 85 128 7.0 12.0 0.00 0.00 0.00 47 1017.7
20200806192127 85 132 8.0 12.0 0.00 0.00 0.00 46 1017.7
20200806192024 86 101 7.0 13.0 0.00 0.00 0.00 46 1017.7
20200806191942 86 125 7.0 12.0 0.00 0.00 0.00 47 1017.7
20200806191835 86 180 6.0 12.0 0.00 0.00 0.00 48 1017.6
20200806191729 86 160 6.0 12.0 0.00 0.00 0.00 48 1017.6
20200806191644 85 172 6.0 12.0 0.00 0.00 0.00 47 1017.6
20200806191538 85 140 5.0 12.0 0.00 0.00 0.00 48 1017.6
20200806191434 85 208 5.0 12.0 0.00 0.00 0.00 48 1017.7
20200806191328 85 182 5.0 12.0 0.00 0.00 0.00 47 1017.7
20200806191229 85 170 5.0 12.0 0.00 0.00 0.00 48 1017.7
20200806191125 85 160 5.0 12.0 0.00 0.00 0.00 47 1017.7
20200806191041 85 129 5.0 12.0 0.00 0.00 0.00 47 1017.8
20200806190933 85 149 8.0 12.0 0.00 0.00 0.00 45 1017.8
20200806190828 85 80 7.0 13.0 0.00 0.00 0.00 47 1017.7
20200806190743 85 144 5.0 13.0 0.00 0.00 0.00 48 1017.8
20200806190638 85 158 5.0 13.0 0.00 0.00 0.00 48 1017.8
20200806190537 85 142 5.0 13.0 0.00 0.00 0.00 48 1017.7
20200806190432 85 176 6.0 13.0 0.00 0.00 0.00 47 1017.7
20200806190329 85 109 7.0 13.0 0.00 0.00 0.00 47 1017.7
20200806190244 85 121 7.0 14.0 0.00 0.00 0.00 47 1017.8
20200806190138 85 111 8.0 13.0 0.00 0.00 0.00 48 1017.8
20200806190032 85 131 8.0 13.0 0.00 0.00 0.00 47 1017.9
20200806185941 85 115 7.0 13.0 0.00 0.00 0.00 47 1017.9
20200806185838 85 94 6.0 13.0 0.00 0.00 0.00 48 1017.9
20200806185737 85 51 5.0 13.0 0.00 0.00 0.00 48 1017.9
20200806185632 85 78 5.0 14.0 0.00 0.00 0.00 48 1018.0
20200806185525 85 140 5.0 14.0 0.00 0.00 0.00 48 1017.9
20200806185440 85 143 5.0 14.0 0.00 0.00 0.00 48 1017.9
20200806185335 85 164 6.0 14.0 0.00 0.00 0.00 47 1018.0
20200806185229 85 122 6.0 14.0 0.00 0.00 0.00 48 1018.0
20200806185143 85 115 6.0 14.0 0.00 0.00 0.00 48 1018.0
20200806185042 85 119 5.0 14.0 0.00 0.00 0.00 48 1018.0
20200806184935 84 156 7.0 14.0 0.00 0.00 0.00 48 1018.0
20200806184831 84 139 7.0 14.0 0.00 0.00 0.00 48 1018.0
20200806184743 84 198 6.0 14.0 0.00 0.00 0.00 48 1018.1
20200806184637 84 148 4.0 16.0 0.00 0.00 0.00 49 1018.1
20200806184531 84 124 6.0 16.0 0.00 0.00 0.00 48 1018.0
20200806184426 84 100 7.0 16.0 0.00 0.00 0.00 48 1018.1
20200806184325 84 171 6.0 16.0 0.00 0.00 0.00 48 1018.1
20200806184240 84 176 6.0 16.0 0.00 0.00 0.00 49 1018.1
20200806184135 84 105 6.0 16.0 0.00 0.00 0.00 49 1018.1
20200806184031 84 143 7.0 16.0 0.00 0.00 0.00 49 1018.1
20200806183926 84 109 8.0 16.0 0.00 0.00 0.00 49 1018.1
20200806183841 84 117 7.0 16.0 0.00 0.00 0.00 49 1018.1
20200806183735 84 151 5.0 13.0 0.00 0.00 0.00 49 1018.2
20200806183628 84 107 4.0 12.0 0.00 0.00 0.00 49 1018.1
20200806183527 84 93 5.0 12.0 0.00 0.00 0.00 50 1018.1
20200806183442 84 119 6.0 12.0 0.00 0.00 0.00 50 1018.2
20200806183336 83 150 7.0 12.0 0.00 0.00 0.00 49 1018.2
20200806183232 83 157 8.0 12.0 0.00 0.00 0.00 49 1018.3
20200806183144 83 152 7.0 13.0 0.00 0.00 0.00 49 1018.2
20200806183038 83 130 7.0 13.0 0.00 0.00 0.00 49 1018.2
20200806182934 83 124 7.0 12.0 0.00 0.00 0.00 48 1018.2
20200806182832 83 128 7.0 12.0 0.00 0.00 0.00 49 1018.2
20200806182727 83 140 7.0 14.0 0.00 0.00 0.00 48 1018.2
20200806182641 83 86 6.0 12.0 0.00 0.00 0.00 49 1018.1
20200806182535 83 124 5.0 10.0 0.00 0.00 0.00 50 1018.1
20200806182434 83 140 6.0 10.0 0.00 0.00 0.00 49 1018.2
20200806182326 83 127 6.0 10.0 0.00 0.00 0.00 50 1018.2
20200806182242 83 154 6.0 10.0 0.00 0.00 0.00 51 1018.2
20200806182136 83 133 5.0 11.0 0.00 0.00 0.00 51 1018.2
20200806182034 83 152 5.0 11.0 0.00 0.00 0.00 51 1018.2
20200806181931 83 158 5.0 11.0 0.00 0.00 0.00 50 1018.3
20200806181843 83 182 5.0 11.0 0.00 0.00 0.00 50 1018.3
20200806181737 83 186 5.0 13.0 0.00 0.00 0.00 50 1018.3
20200806181633 83 175 5.0 13.0 0.00 0.00 0.00 50 1018.3
20200806181528 83 161 4.0 13.0 0.00 0.00 0.00 50 1018.3
20200806181443 83 133 5.0 13.0 0.00 0.00 0.00 49 1018.3
20200806181342 83 152 6.0 13.0 0.00 0.00 0.00 49 1018.3
20200806181236 83 192 5.0 13.0 0.00 0.00 0.00 50 1018.3
20200806181132 83 164 5.0 13.0 0.00 0.00 0.00 49 1018.3
20200806181045 83 159 7.0 13.0 0.00 0.00 0.00 48 1018.3
20200806180937 83 165 6.0 13.0 0.00 0.00 0.00 49 1018.3
20200806180832 83 99 4.0 13.0 0.00 0.00 0.00 50 1018.4
20200806180724 83 140 4.0 13.0 0.00 0.00 0.00 48 1018.3
20200806180640 83 182 4.0 13.0 0.00 0.00 0.00 48 1018.3
20200806180539 83 110 5.0 13.0 0.00 0.00 0.00 49 1018.3
20200806180432 84 190 6.0 13.0 0.00 0.00 0.00 50 1018.3
20200806180329 84 177 5.0 13.0 0.00 0.00 0.00 49 1018.3
20200806180243 84 139 5.0 13.0 0.00 0.00 0.00 50 1018.3
20200806180138 84 112 4.0 12.0 0.00 0.00 0.00 50 1018.3
20200806180034 84 163 5.0 12.0 0.00 0.00 0.00 49 1018.3
20200806175928 84 108 6.0 13.0 0.00 0.00 0.00 48 1018.3
20200806175828 84 124 6.0 13.0 0.00 0.00 0.00 48 1018.3
20200806175744 84 162 4.0 13.0 0.00 0.00 0.00 50 1018.3
20200806175636 84 126 4.0 13.0 0.00 0.00 0.00 49 1018.3
20200806175530 84 140 5.0 13.0 0.00 0.00 0.00 49 1018.3
20200806175446 84 113 4.0 13.0 0.00 0.00 0.00 49 1018.4
20200806175339 84 137 4.0 15.0 0.00 0.00 0.00 50 1018.3
20200806175234 83 155 6.0 15.0 0.00 0.00 0.00 48 1018.3
20200806175133 83 109 7.0 15.0 0.00 0.00 0.00 48 1018.2
20200806175029 83 160 4.0 15.0 0.00 0.00 0.00 51 1018.3
20200806174942 83 131 3.0 15.0 0.00 0.00 0.00 51 1018.3
20200806174837 83 133 5.0 15.0 0.00 0.00 0.00 51 1018.3
20200806174730 83 107 7.0 15.0 0.00 0.00 0.00 50 1018.3
20200806174644 83 163 8.0 15.0 0.00 0.00 0.00 50 1018.4
20200806174536 83 110 7.0 15.0 0.00 0.00 0.00 51 1018.4
20200806174429 83 128 4.0 13.0 0.00 0.00 0.00 53 1018.3
20200806174327 83 188 4.0 13.0 0.00 0.00 0.00 54 1018.4
20200806174243 83 209 5.0 13.0 0.00 0.00 0.00 54 1018.5
20200806174133 82 115 6.0 13.0 0.00 0.00 0.00 52 1018.5
20200806174029 82 130 6.0 13.0 0.00 0.00 0.00 52 1018.4
20200806173945 82 156 5.0 12.0 0.00 0.00 0.00 52 1018.5
20200806173838 82 110 5.0 12.0 0.00 0.00 0.00 52 1018.5
20200806173735 82 98 6.0 12.0 0.00 0.00 0.00 51 1018.5
20200806173633 82 95 6.0 12.0 0.00 0.00 0.00 53 1018.5
20200806173529 82 190 6.0 12.0 0.00 0.00 0.00 52 1018.5
20200806173444 82 138 6.0 12.0 0.00 0.00 0.00 50 1018.5
20200806173341 82 90 5.0 12.0 0.00 0.00 0.00 51 1018.5
20200806173235 82 97 5.0 12.0 0.00 0.00 0.00 51 1018.5
20200806173129 82 103 6.0 12.0 0.00 0.00 0.00 52 1018.5
20200806173044 82 112 5.0 12.0 0.00 0.00 0.00 52 1018.5
20200806172940 82 111 4.0 11.0 0.00 0.00 0.00 53 1018.4
20200806172839 82 136 4.0 10.0 0.00 0.00 0.00 53 1018.5
20200806172733 82 147 5.0 10.0 0.00 0.00 0.00 54 1018.5
20200806172628 82 150 6.0 12.0 0.00 0.00 0.00 54 1018.5
20200806172539 82 143 7.0 12.0 0.00 0.00 0.00 54 1018.5
20200806172434 82 132 5.0 12.0 0.00 0.00 0.00 54 1018.5
20200806172328 82 144 5.0 12.0 0.00 0.00 0.00 53 1018.4
20200806172242 82 158 6.0 12.0 0.00 0.00 0.00 53 1018.5
20200806172141 81 142 6.0 12.0 0.00 0.00 0.00 53 1018.5
20200806172035 81 134 6.0 15.0 0.00 0.00 0.00 52 1018.5
20200806171930 81 150 6.0 15.0 0.00 0.00 0.00 53 1018.5
20200806171844 81 138 7.0 15.0 0.00 0.00 0.00 53 1018.5
20200806171738 81 127 7.0 15.0 0.00 0.00 0.00 53 1018.4
20200806171633 81 155 6.0 15.0 0.00 0.00 0.00 54 1018.5
20200806171528 81 152 6.0 15.0 0.00 0.00 0.00 53 1018.5
20200806171427 81 180 6.0 15.0 0.00 0.00 0.00 53 1018.5
20200806171343 81 166 7.0 15.0 0.00 0.00 0.00 53 1018.5
20200806171237 81 132 6.0 15.0 0.00 0.00 0.00 53 1018.5
20200806171133 80 167 5.0 15.0 0.00 0.00 0.00 55 1018.5
20200806171030 80 161 5.0 15.0 0.00 0.00 0.00 53 1018.5
20200806170943 80 159 6.0 15.0 0.00 0.00 0.00 53 1018.5
20200806170839 80 125 7.0 15.0 0.00 0.00 0.00 52 1018.5
20200806170735 80 145 8.0 15.0 0.00 0.00 0.00 51 1018.5
20200806170634 80 121 8.0 15.0 0.00 0.00 0.00 51 1018.5
20200806170529 80 119 9.0 15.0 0.00 0.00 0.00 51 1018.5
20200806170444 80 140 8.0 15.0 0.00 0.00 0.00 52 1018.5
20200806170339 80 175 9.0 15.0 0.00 0.00 0.00 52 1018.5
20200806170233 80 155 10.0 15.0 0.00 0.00 0.00 51 1018.4
20200806170152 80 101 8.0 14.0 0.00 0.00 0.00 51 1018.4
20200806170036 80 84 6.0 13.0 0.00 0.00 0.00 52 1018.5
20200806165931 80 92 5.0 13.0 0.00 0.00 0.00 52 1018.5
20200806165844 80 135 6.0 14.0 0.00 0.00 0.00 52 1018.5
20200806165739 81 134 6.0 14.0 0.00 0.00 0.00 53 1018.5
20200806165633 81 120 5.0 14.0 0.00 0.00 0.00 53 1018.5
20200806165531 81 167 5.0 15.0 0.00 0.00 0.00 52 1018.5
20200806165426 81 117 5.0 15.0 0.00 0.00 0.00 52 1018.4
20200806165341 81 184 6.0 15.0 0.00 0.00 0.00 51 1018.4
20200806165235 81 138 7.0 15.0 0.00 0.00 0.00 51 1018.4
20200806165134 81 178 7.0 15.0 0.00 0.00 0.00 51 1018.3
20200806165028 81 148 8.0 15.0 0.00 0.00 0.00 51 1018.3
20200806164942 81 146 8.0 15.0 0.00 0.00 0.00 51 1018.3
20200806164838 81 165 7.0 15.0 0.00 0.00 0.00 51 1018.3
20200806164733 81 136 7.0 15.0 0.00 0.00 0.00 52 1018.4
20200806164630 81 168 6.0 15.0 0.00 0.00 0.00 52 1018.3
20200806164545 81 152 6.0 12.0 0.00 0.00 0.00 52 1018.4
20200806164440 81 161 8.0 12.0 0.00 0.00 0.00 52 1018.3
20200806164333 80 141 8.0 13.0 0.00 0.00 0.00 52 1018.3
20200806164228 80 123 7.0 12.0 0.00 0.00 0.00 53 1018.4
20200806164146 80 163 7.0 11.0 0.00 0.00 0.00 53 1018.4
20200806164039 80 142 6.0 12.0 0.00 0.00 0.00 53 1018.3
20200806163933 80 128 5.0 13.0 0.00 0.00 0.00 54 1018.4
20200806163831 80 129 5.0 13.0 0.00 0.00 0.00 55 1018.4
20200806163726 80 161 6.0 13.0 0.00 0.00 0.00 55 1018.4
20200806163643 80 87 5.0 13.0 0.00 0.00 0.00 55 1018.3
20200806163537 80 134 6.0 13.0 0.00 0.00 0.00 54 1018.3
20200806163434 80 142 6.0 13.0 0.00 0.00 0.00 54 1018.3
20200806163327 79 133 7.0 13.0 0.00 0.00 0.00 54 1018.4
20200806163242 79 127 7.0 13.0 0.00 0.00 0.00 54 1018.4
20200806163136 79 153 8.0 13.0 0.00 0.00 0.00 54 1018.4
20200806163033 79 128 8.0 13.0 0.00 0.00 0.00 55 1018.4
20200806162932 79 106 6.0 11.0 0.00 0.00 0.00 57 1018.4
20200806162825 79 161 4.0 11.0 0.00 0.00 0.00 57 1018.4
20200806162740 79 122 4.0 11.0 0.00 0.00 0.00 57 1018.4
20200806162635 79 96 5.0 11.0 0.00 0.00 0.00 57 1018.4
20200806162528 79 84 5.0 11.0 0.00 0.00 0.00 56 1018.4
20200806162443 79 150 6.0 11.0 0.00 0.00 0.00 56 1018.4
20200806162338 79 121 6.0 11.0 0.00 0.00 0.00 55 1018.5
20200806162236 79 142 7.0 12.0 0.00 0.00 0.00 55 1018.5
20200806162131 79 144 6.0 12.0 0.00 0.00 0.00 56 1018.5
20200806162045 79 109 5.0 12.0 0.00 0.00 0.00 56 1018.6
20200806161939 79 120 4.0 11.0 0.00 0.00 0.00 57 1018.5
20200806161833 78 158 5.0 11.0 0.00 0.00 0.00 56 1018.5
20200806161728 78 179 6.0 11.0 0.00 0.00 0.00 56 1018.5
20200806161643 78 99 7.0 11.0 0.00 0.00 0.00 57 1018.5
20200806161539 78 123 6.0 11.0 0.00 0.00 0.00 58 1018.4
20200806161437 78 146 5.0 11.0 0.00 0.00 0.00 58 1018.3
20200806161331 78 128 5.0 11.0 0.00 0.00 0.00 58 1018.4
20200806161225 78 121 5.0 14.0 0.00 0.00 0.00 58 1018.3
20200806161138 78 174 4.0 14.0 0.00 0.00 0.00 58 1018.3
20200806161033 78 163 4.0 14.0 0.00 0.00 0.00 57 1018.4
20200806160928 78 171 6.0 14.0 0.00 0.00 0.00 57 1018.4
20200806160842 78 182 5.0 14.0 0.00 0.00 0.00 56 1018.4
20200806160739 78 180 5.0 14.0 0.00 0.00 0.00 57 1018.4
20200806160634 78 181 5.0 14.0 0.00 0.00 0.00 58 1018.5
20200806160529 78 150 7.0 14.0 0.00 0.00 0.00 57 1018.5
20200806160446 78 125 7.0 14.0 0.00 0.00 0.00 57 1018.4
20200806160341 78 106 7.0 14.0 0.00 0.00 0.00 58 1018.5
20200806160248 78 171 4.0 13.0 0.00 0.00 0.00 60 1018.5
20200806160133 78 144 3.0 14.0 0.00 0.00 0.00 59 1018.5
20200806160034 78 216 5.0 14.0 0.00 0.00 0.00 59 1018.5
20200806155928 78 99 7.0 14.0 0.00 0.00 0.00 59 1018.5
20200806155844 78 136 6.0 14.0 0.00 0.00 0.00 60 1018.5
20200806155741 78 133 3.0 14.0 0.00 0.00 0.00 59 1018.5
20200806155637 78 190 4.0 14.0 0.00 0.00 0.00 59 1018.5
20200806155533 78 170 4.0 14.0 0.00 0.00 0.00 60 1018.5
20200806155429 78 170 5.0 14.0 0.00 0.00 0.00 60 1018.5
20200806155327 78 153 6.0 14.0 0.00 0.00 0.00 60 1018.5
20200806155241 78 116 6.0 14.0 0.00 0.00 0.00 60 1018.5
20200806155137 78 132 5.0 11.0 0.00 0.00 0.00 60 1018.5
20200806155033 78 161 5.0 11.0 0.00 0.00 0.00 60 1018.5
20200806154927 78 108 5.0 11.0 0.00 0.00 0.00 60 1018.5
20200806154844 77 207 4.0 11.0 0.00 0.00 0.00 60 1018.5
20200806154737 77 170 4.0 11.0 0.00 0.00 0.00 61 1018.6
20200806154635 77 183 4.0 11.0 0.00 0.00 0.00 61 1018.5
20200806154534 77 155 6.0 11.0 0.00 0.00 0.00 61 1018.6
20200806154428 77 144 6.0 11.0 0.00 0.00 0.00 60 1018.6
20200806154343 77 145 5.0 12.0 0.00 0.00 0.00 61 1018.6
20200806154239 77 123 3.0 12.0 0.00 0.00 0.00 61 1018.5
20200806154135 77 155 4.0 12.0 0.00 0.00 0.00 61 1018.5
20200806154031 77 180 5.0 12.0 0.00 0.00 0.00 61 1018.5
20200806153927 77 161 5.0 12.0 0.00 0.00 0.00 61 1018.5
20200806153827 77 178 5.0 12.0 0.00 0.00 0.00 62 1018.4
20200806153742 77 147 4.0 12.0 0.00 0.00 0.00 62 1018.5
20200806153637 77 131 4.0 12.0 0.00 0.00 0.00 63 1018.4
20200806153534 76 166 4.0 12.0 0.00 0.00 0.00 62 1018.5
20200806153430 76 126 5.0 12.0 0.00 0.00 0.00 62 1018.4
20200806153326 76 180 6.0 12.0 0.00 0.00 0.00 61 1018.4
20200806153241 76 128 6.0 14.0 0.00 0.00 0.00 61 1018.5
20200806153143 76 175 6.0 14.0 0.00 0.00 0.00 62 1018.4
20200806153037 76 134 5.0 14.0 0.00 0.00 0.00 62 1018.3
20200806152936 76 146 4.0 14.0 0.00 0.00 0.00 62 1018.3
20200806152829 76 180 5.0 14.0 0.00 0.00 0.00 63 1018.3
20200806152743 76 182 6.0 14.0 0.00 0.00 0.00 61 1018.3
20200806152639 76 182 7.0 14.0 0.00 0.00 0.00 61 1018.2
20200806152535 76 119 7.0 14.0 0.00 0.00 0.00 61 1018.2
20200806152433 76 159 7.0 14.0 0.00 0.00 0.00 62 1018.3
20200806152331 76 132 7.0 14.0 0.00 0.00 0.00 62 1018.2
20200806152246 76 152 6.0 10.0 0.00 0.00 0.00 64 1018.2
20200806152137 76 138 4.0 10.0 0.00 0.00 0.00 65 1018.2
20200806152032 75 160 4.0 10.0 0.00 0.00 0.00 65 1018.2
20200806151928 75 167 5.0 10.0 0.00 0.00 0.00 65 1018.2
20200806151845 75 148 5.0 13.0 0.00 0.00 0.00 65 1018.2
20200806151740 75 138 6.0 13.0 0.00 0.00 0.00 65 1018.2
20200806151641 75 130 5.0 13.0 0.00 0.00 0.00 64 1018.2
20200806151534 75 116 5.0 13.0 0.00 0.00 0.00 64 1018.2
20200806151431 75 130 5.0 13.0 0.00 0.00 0.00 64 1018.3
20200806151325 75 192 6.0 13.0 0.00 0.00 0.00 64 1018.2
20200806151241 75 165 7.0 13.0 0.00 0.00 0.00 64 1018.3
20200806151137 75 128 6.0 13.0 0.00 0.00 0.00 65 1018.3
20200806151033 74 148 6.0 13.0 0.00 0.00 0.00 65 1018.3
20200806150941 74 152 5.0 9.0 0.00 0.00 0.00 66 1018.3
20200806150829 74 152 4.0 9.0 0.00 0.00 0.00 66 1018.3
20200806150725 74 150 4.0 11.0 0.00 0.00 0.00 67 1018.3
20200806150641 74 173 4.0 11.0 0.00 0.00 0.00 68 1018.4
20200806150538 74 159 3.0 11.0 0.00 0.00 0.00 68 1018.4
20200806150431 74 182 4.0 11.0 0.00 0.00 0.00 68 1018.4
20200806150328 74 165 5.0 11.0 0.00 0.00 0.00 67 1018.4
20200806150229 74 161 4.0 11.0 0.00 0.00 0.00 67 1018.4
20200806150150 74 127 5.0 11.0 0.00 0.00 0.00 67 1018.4
20200806150037 73 149 5.0 11.0 0.00 0.00 0.00 66 1018.4
20200806145928 73 133 5.0 11.0 0.00 0.00 0.00 66 1018.4
20200806145843 73 167 6.0 11.0 0.00 0.00 0.00 66 1018.4
20200806145740 73 135 6.0 10.0 0.00 0.00 0.00 66 1018.5
20200806145637 73 163 4.0 9.0 0.00 0.00 0.00 66 1018.4
20200806145534 73 153 3.0 9.0 0.00 0.00 0.00 67 1018.4
20200806145429 73 132 2.0 8.0 0.00 0.00 0.00 67 1018.5
20200806145344 73 192 3.0 8.0 0.00 0.00 0.00 67 1018.5
20200806145240 73 168 4.0 8.0 0.00 0.00 0.00 67 1018.4
20200806145139 73 159 4.0 8.0 0.00 0.00 0.00 68 1018.5
20200806145036 73 170 3.0 8.0 0.00 0.00 0.00 68 1018.5
20200806144929 73 134 3.0 8.0 0.00 0.00 0.00 68 1018.5
20200806144830 73 175 3.0 8.0 0.00 0.00 0.00 68 1018.5
20200806144749 73 168 2.0 8.0 0.00 0.00 0.00 69 1018.5
20200806144639 73 180 2.0 8.0 0.00 0.00 0.00 69 1018.5
20200806144536 73 131 2.0 8.0 0.00 0.00 0.00 70 1018.5
20200806144431 73 175 2.0 8.0 0.00 0.00 0.00 70 1018.5
20200806144331 72 160 3.0 8.0 0.00 0.00 0.00 70 1018.5
20200806144243 72 192 4.0 8.0 0.00 0.00 0.00 69 1018.6
20200806144139 72 182 4.0 8.0 0.00 0.00 0.00 70 1018.6
20200806144036 72 186 3.0 8.0 0.00 0.00 0.00 70 1018.6
20200806143935 72 160 3.0 13.0 0.00 0.00 0.00 70 1018.6
20200806143900 72 182 3.0 13.0 0.00 0.00 0.00 70 1018.6
20200806143744 72 165 3.0 13.0 0.00 0.00 0.00 69 1018.6
20200806143641 72 176 3.0 13.0 0.00 0.00 0.00 69 1018.6
20200806143536 72 160 2.0 13.0 0.00 0.00 0.00 69 1018.6
20200806143430 72 167 3.0 13.0 0.00 0.00 0.00 68 1018.6
20200806143331 72 184 3.0 13.0 0.00 0.00 0.00 68 1018.6
20200806143226 72 157 5.0 13.0 0.00 0.00 0.00 67 1018.6
20200806143141 72 167 5.0 13.0 0.00 0.00 0.00 68 1018.7
20200806143038 72 128 4.0 8.0 0.00 0.00 0.00 68 1018.6
20200806142933 72 146 4.0 9.0 0.00 0.00 0.00 68 1018.7
20200806142829 72 167 4.0 9.0 0.00 0.00 0.00 68 1018.7
20200806142744 72 120 4.0 10.0 0.00 0.00 0.00 68 1018.7
20200806142645 72 153 3.0 10.0 0.00 0.00 0.00 69 1018.6
20200806142540 72 244 3.0 10.0 0.00 0.00 0.00 69 1018.6
20200806142436 72 159 4.0 10.0 0.00 0.00 0.00 69 1018.5
20200806142341 72 175 5.0 10.0 0.00 0.00 0.00 69 1018.5
20200806142228 72 158 6.0 10.0 0.00 0.00 0.00 69 1018.5
20200806142144 72 196 5.0 10.0 0.00 0.00 0.00 68 1018.5
20200806142040 72 155 6.0 10.0 0.00 0.00 0.00 68 1018.5
20200806141940 72 175 6.0 10.0 0.00 0.00 0.00 68 1018.5
20200806141837 72 132 5.0 11.0 0.00 0.00 0.00 69 1018.4
20200806141732 72 94 4.0 10.0 0.00 0.00 0.00 69 1018.4
20200806141629 72 126 4.0 10.0 0.00 0.00 0.00 69 1018.4
20200806141529 72 126 4.0 12.0 0.00 0.00 0.00 70 1018.4
20200806141442 72 138 5.0 12.0 0.00 0.00 0.00 70 1018.4
20200806141338 71 119 4.0 12.0 0.00 0.00 0.00 70 1018.4
20200806141238 71 128 3.0 12.0 0.00 0.00 0.00 71 1018.4
20200806141133 71 184 4.0 12.0 0.00 0.00 0.00 71 1018.5
20200806141028 71 166 5.0 12.0 0.00 0.00 0.00 71 1018.4
20200806140942 71 122 5.0 12.0 0.00 0.00 0.00 71 1018.5
20200806140836 71 132 5.0 12.0 0.00 0.00 0.00 72 1018.5
20200806140737 71 128 5.0 12.0 0.00 0.00 0.00 72 1018.4
20200806140630 71 128 5.0 12.0 0.00 0.00 0.00 74 1018.5
20200806140528 71 123 3.0 8.0 0.00 0.00 0.00 74 1018.5
20200806140443 70 178 4.0 8.0 0.00 0.00 0.00 75 1018.5
20200806140340 70 150 4.0 8.0 0.00 0.00 0.00 75 1018.5
20200806140236 70 123 4.0 8.0 0.00 0.00 0.00 76 1018.5
20200806140134 70 169 4.0 8.0 0.00 0.00 0.00 77 1018.5
20200806140028 70 123 4.0 8.0 0.00 0.00 0.00 78 1018.6
20200806135944 70 162 4.0 8.0 0.00 0.00 0.00 78 1018.6
20200806135825 69 123 4.0 8.0 0.00 0.00 0.00 79 1018.7
20200806135741 69 144 3.0 8.0 0.00 0.00 0.00 79 1018.6
20200806135638 69 144 3.0 9.0 0.00 0.00 0.00 80 1018.6
20200806135535 69 202 3.0 9.0 0.00 0.00 0.00 80 1018.6
20200806135431 69 112 3.0 9.0 0.00 0.00 0.00 80 1018.6
20200806135346 69 131 4.0 9.0 0.00 0.00 0.00 80 1018.6
20200806135241 68 96 4.0 9.0 0.00 0.00 0.00 81 1018.6
20200806135135 68 120 3.0 8.0 0.00 0.00 0.00 82 1018.6
20200806135033 68 154 3.0 8.0 0.00 0.00 0.00 82 1018.6
20200806134930 68 155 4.0 8.0 0.00 0.00 0.00 83 1018.7
20200806134844 68 130 4.0 8.0 0.00 0.00 0.00 83 1018.7
20200806134740 67 132 3.0 8.0 0.00 0.00 0.00 83 1018.7
20200806134636 67 126 2.0 8.0 0.00 0.00 0.00 84 1018.7
20200806134533 67 167 3.0 8.0 0.00 0.00 0.00 84 1018.7
20200806134430 67 170 3.0 8.0 0.00 0.00 0.00 85 1018.7
20200806134331 67 174 3.0 6.0 0.00 0.00 0.00 85 1018.7
20200806134227 67 159 2.0 5.0 0.00 0.00 0.00 86 1018.7
20200806134155 67 184 3.0 5.0 0.00 0.00 0.00 86 1018.7
20200806134039 66 114 3.0 5.0 0.00 0.00 0.00 87 1018.7
20200806133934 66 124 2.0 6.0 0.00 0.00 0.00 87 1018.7
20200806133830 66 135 3.0 6.0 0.00 0.00 0.00 87 1018.7
20200806133744 66 136 3.0 6.0 0.00 0.00 0.00 87 1018.7
20200806133644 66 169 2.0 6.0 0.00 0.00 0.00 88 1018.7
20200806133539 66 111 2.0 6.0 0.00 0.00 0.00 88 1018.7
20200806133435 65 142 2.0 6.0 0.00 0.00 0.00 88 1018.7
20200806133332 65 142 2.0 6.0 0.00 0.00 0.00 88 1018.7
20200806133227 65 134 3.0 6.0 0.00 0.00 0.00 88 1018.7
20200806133142 65 157 4.0 6.0 0.00 0.00 0.00 88 1018.7
20200806133037 65 114 3.0 6.0 0.00 0.00 0.00 88 1018.7
20200806132938 65 148 3.0 7.0 0.00 0.00 0.00 88 1018.7
20200806132833 65 171 3.0 7.0 0.00 0.00 0.00 88 1018.7
20200806132729 65 146 3.0 7.0 0.00 0.00 0.00 88 1018.8
20200806132625 65 141 3.0 7.0 0.00 0.00 0.00 88 1018.8
20200806132540 65 134 2.0 7.0 0.00 0.00 0.00 88 1018.8
20200806132436 64 143 2.0 7.0 0.00 0.00 0.00 88 1018.8
20200806132329 64 150 3.0 7.0 0.00 0.00 0.00 88 1018.8
20200806132230 64 132 3.0 7.0 0.00 0.00 0.00 88 1018.8
20200806132126 64 154 3.0 7.0 0.00 0.00 0.00 88 1018.9
20200806132042 64 126 3.0 7.0 0.00 0.00 0.00 88 1018.9
20200806131938 64 119 3.0 5.0 0.00 0.00 0.00 89 1018.9
20200806131833 64 124 2.0 5.0 0.00 0.00 0.00 89 1018.8
20200806131730 64 134 2.0 5.0 0.00 0.00 0.00 89 1018.9
20200806131626 64 145 1.0 5.0 0.00 0.00 0.00 89 1018.9
20200806131527 64 114 2.0 5.0 0.00 0.00 0.00 89 1018.9
20200806131440 64 106 2.0 5.0 0.00 0.00 0.00 89 1018.9
20200806131336 64 136 3.0 5.0 0.00 0.00 0.00 89 1018.9
20200806131231 64 138 2.0 5.0 0.00 0.00 0.00 89 1018.9
20200806131127 64 126 2.0 4.0 0.00 0.00 0.00 89 1018.9
20200806131042 64 138 2.0 4.0 0.00 0.00 0.00 89 1018.9
20200806130938 64 128 1.0 5.0 0.00 0.00 0.00 90 1018.9
20200806130832 64 130 2.0 5.0 0.00 0.00 0.00 90 1018.9
20200806130732 64 120 2.0 4.0 0.00 0.00 0.00 90 1018.9
20200806130626 64 144 2.0 4.0 0.00 0.00 0.00 90 1018.9
20200806130541 64 146 2.0 4.0 0.00 0.00 0.00 90 1018.8
20200806130437 64 136 2.0 4.0 0.00 0.00 0.00 90 1018.9
20200806130332 64 117 2.0 4.0 0.00 0.00 0.00 90 1018.9
20200806130228 63 158 2.0 4.0 0.00 0.00 0.00 90 1018.9
20200806130148 63 135 2.0 4.0 0.00 0.00 0.00 90 1018.9
20200806130041 63 134 2.0 4.0 0.00 0.00 0.00 90 1019.0
20200806125931 63 134 2.0 4.0 0.00 0.00 0.00 90 1018.9
20200806125827 63 139 1.0 4.0 0.00 0.00 0.00 90 1018.9
20200806125743 63 137 1.0 3.0 0.00 0.00 0.00 90 1018.9
20200806125641 63 136 1.0 3.0 0.00 0.00 0.00 90 1018.9
20200806125533 63 136 1.0 3.0 0.00 0.00 0.00 90 1018.8
20200806125428 63 136 1.0 3.0 0.00 0.00 0.00 90 1018.8
20200806125327 63 141 1.0 3.0 0.00 0.00 0.00 91 1018.9
20200806125225 63 141 2.0 3.0 0.00 0.00 0.00 91 1018.8
20200806125143 63 134 1.0 3.0 0.00 0.00 0.00 91 1018.8
20200806125035 63 140 0.0 3.0 0.00 0.00 0.00 91 1018.8
20200806124930 63 139 0.0 3.0 0.00 0.00 0.00 91 1018.8
20200806124825 63 139 0.0 3.0 0.00 0.00 0.00 91 1018.9
20200806124742 63 139 0.0 3.0 0.00 0.00 0.00 91 1018.8
20200806124638 63 139 0.0 3.0 0.00 0.00 0.00 91 1018.8
20200806124537 63 139 1.0 3.0 0.00 0.00 0.00 91 1018.8
20200806124432 63 138 2.0 3.0 0.00 0.00 0.00 91 1018.8
20200806124327 63 136 1.0 3.0 0.00 0.00 0.00 91 1018.8
20200806124246 63 136 1.0 3.0 0.00 0.00 0.00 91 1018.8
20200806124140 63 136 1.0 3.0 0.00 0.00 0.00 91 1018.8
20200806124039 63 136 1.0 3.0 0.00 0.00 0.00 91 1018.8
20200806123933 63 136 1.0 3.0 0.00 0.00 0.00 91 1018.8
20200806123837 63 136 2.0 3.0 0.00 0.00 0.00 91 1018.8
20200806123729 63 136 2.0 3.0 0.00 0.00 0.00 91 1018.8
20200806123645 63 136 1.0 2.0 0.00 0.00 0.00 91 1018.8
20200806123542 63 136 1.0 2.0 0.00 0.00 0.00 91 1018.8
20200806123438 63 136 0.0 2.0 0.00 0.00 0.00 91 1018.7
20200806123332 63 136 0.0 2.0 0.00 0.00 0.00 91 1018.8
20200806123228 63 136 0.0 2.0 0.00 0.00 0.00 91 1018.8
20200806123128 62 136 0.0 3.0 0.00 0.00 0.00 91 1018.8
20200806123044 62 136 0.0 3.0 0.00 0.00 0.00 91 1018.8
20200806122940 62 136 0.0 3.0 0.00 0.00 0.00 91 1018.8
20200806122837 62 136 0.0 3.0 0.00 0.00 0.00 91 1018.8
20200806122733 62 136 0.0 3.0 0.00 0.00 0.00 91 1018.7
20200806122633 62 136 0.0 3.0 0.00 0.00 0.00 91 1018.7
20200806122526 62 136 1.0 4.0 0.00 0.00 0.00 91 1018.7
20200806122427 62 136 0.0 4.0 0.00 0.00 0.00 91 1018.7
20200806122355 62 136 1.0 4.0 0.00 0.00 0.00 91 1018.7
20200806122237 62 136 1.0 4.0 0.00 0.00 0.00 91 1018.7
20200806122134 62 136 1.0 4.0 0.00 0.00 0.00 91 1018.7
20200806122028 62 138 0.0 4.0 0.00 0.00 0.00 91 1018.7
20200806121944 62 138 1.0 4.0 0.00 0.00 0.00 91 1018.6
20200806121839 62 138 2.0 4.0 0.00 0.00 0.00 91 1018.6
20200806121739 62 133 2.0 4.0 0.00 0.00 0.00 91 1018.6
20200806121635 62 122 2.0 4.0 0.00 0.00 0.00 91 1018.7
20200806121530 62 113 2.0 3.0 0.00 0.00 0.00 91 1018.7
20200806121426 62 170 2.0 4.0 0.00 0.00 0.00 91 1018.6
20200806121341 62 140 2.0 4.0 0.00 0.00 0.00 91 1018.6
20200806121238 62 143 2.0 4.0 0.00 0.00 0.00 91 1018.6
20200806121135 62 144 1.0 4.0 0.00 0.00 0.00 91 1018.6
20200806121036 62 140 2.0 4.0 0.00 0.00 0.00 91 1018.6
20200806120946 62 134 2.0 4.0 0.00 0.00 0.00 91 1018.6
20200806120728 62 153 2.0 4.0 0.00 0.00 0.00 91 1018.6
20200806120625 62 125 2.0 4.0 0.00 0.00 0.00 90 1018.6
20200806120544 62 140 3.0 4.0 0.00 0.00 0.00 90 1018.5
20200806120437 62 134 2.0 4.0 0.00 0.00 0.00 90 1018.6
20200806120340 62 137 2.0 4.0 0.00 0.00 0.00 90 1018.6
20200806120233 62 138 2.0 4.0 0.00 0.00 0.00 90 1018.6
20200806120130 62 140 2.0 4.0 0.00 0.00 0.00 90 1018.5
20200806120043 62 138 2.0 4.0 0.00 0.00 0.00 90 1018.6
20200806115941 62 138 2.0 4.0 0.00 0.00 0.00 90 1018.5
20200806115835 62 134 2.0 4.0 0.00 0.00 0.00 90 1018.6
20200806115730 62 150 2.0 4.0 0.00 0.00 0.00 90 1018.6
20200806115630 62 121 2.0 4.0 0.00 0.00 0.00 90 1018.6
20200806115525 62 140 1.0 4.0 0.00 0.00 0.00 90 1018.6
20200806115439 62 150 1.0 4.0 0.00 0.00 0.00 90 1018.6
20200806115335 62 150 2.0 4.0 0.00 0.00 0.00 90 1018.6
20200806115230 62 153 2.0 4.0 0.00 0.00 0.00 90 1018.6
20200806115127 62 133 2.0 4.0 0.00 0.00 0.00 90 1018.7
20200806115042 62 119 1.0 3.0 0.00 0.00 0.00 90 1018.7
20200806114940 62 128 1.0 3.0 0.00 0.00 0.00 90 1018.7
20200806114837 62 128 1.0 3.0 0.00 0.00 0.00 90 1018.7
20200806114732 62 128 1.0 3.0 0.00 0.00 0.00 90 1018.7
20200806114629 62 122 1.0 3.0 0.00 0.00 0.00 90 1018.7
20200806114526 62 136 2.0 3.0 0.00 0.00 0.00 90 1018.7
20200806114438 62 138 1.0 3.0 0.00 0.00 0.00 90 1018.7
20200806114335 61 134 2.0 3.0 0.00 0.00 0.00 90 1018.6
20200806114234 62 131 2.0 3.0 0.00 0.00 0.00 90 1018.6
20200806114131 61 115 2.0 3.0 0.00 0.00 0.00 90 1018.6
20200806114028 61 134 2.0 3.0 0.00 0.00 0.00 90 1018.6
20200806113944 61 132 2.0 4.0 0.00 0.00 0.00 90 1018.6
20200806113840 61 132 2.0 4.0 0.00 0.00 0.00 90 1018.6
20200806113737 61 145 2.0 4.0 0.00 0.00 0.00 90 1018.6
20200806113635 61 136 1.0 4.0 0.00 0.00 0.00 90 1018.6
20200806113535 61 136 1.0 4.0 0.00 0.00 0.00 90 1018.6
20200806113430 61 136 1.0 4.0 0.00 0.00 0.00 90 1018.6
20200806113326 61 130 1.0 4.0 0.00 0.00 0.00 90 1018.6
20200806113241 61 123 2.0 4.0 0.00 0.00 0.00 90 1018.5
20200806113135 61 123 2.0 4.0 0.00 0.00 0.00 90 1018.5
20200806113033 61 140 1.0 3.0 0.00 0.00 0.00 90 1018.5
20200806112927 61 136 1.0 3.0 0.00 0.00 0.00 90 1018.4
20200806112827 61 120 1.0 3.0 0.00 0.00 0.00 90 1018.4
20200806112743 61 113 1.0 3.0 0.00 0.00 0.00 90 1018.3
20200806112641 61 133 1.0 3.0 0.00 0.00 0.00 90 1018.4
20200806112534 61 119 1.0 3.0 0.00 0.00 0.00 90 1018.4
20200806112431 61 128 1.0 3.0 0.00 0.00 0.00 90 1018.4
20200806112325 61 122 1.0 3.0 0.00 0.00 0.00 90 1018.4
20200806112241 61 128 1.0 3.0 0.00 0.00 0.00 90 1018.4
20200806112137 61 128 1.0 3.0 0.00 0.00 0.00 90 1018.4
20200806112036 61 137 2.0 3.0 0.00 0.00 0.00 89 1018.4
20200806111934 61 138 2.0 3.0 0.00 0.00 0.00 89 1018.4
20200806111828 61 150 2.0 3.0 0.00 0.00 0.00 89 1018.4
20200806111744 61 126 2.0 3.0 0.00 0.00 0.00 89 1018.4
20200806111641 61 125 1.0 2.0 0.00 0.00 0.00 89 1018.4
20200806111538 61 125 1.0 2.0 0.00 0.00 0.00 89 1018.4
20200806111433 61 127 0.0 1.0 0.00 0.00 0.00 89 1018.3
20200806111331 61 127 0.0 1.0 0.00 0.00 0.00 89 1018.3
20200806111227 61 127 1.0 1.0 0.00 0.00 0.00 89 1018.3
20200806111142 61 127 1.0 2.0 0.00 0.00 0.00 89 1018.3
20200806111037 61 127 0.0 2.0 0.00 0.00 0.00 89 1018.4
20200806110935 61 127 0.0 2.0 0.00 0.00 0.00 89 1018.4
20200806110828 61 127 0.0 2.0 0.00 0.00 0.00 89 1018.4
20200806110743 61 127 0.0 2.0 0.00 0.00 0.00 89 1018.4
20200806110643 61 123 0.0 4.0 0.00 0.00 0.00 89 1018.4
20200806110539 61 123 0.0 4.0 0.00 0.00 0.00 89 1018.4
20200806110432 61 123 1.0 4.0 0.00 0.00 0.00 89 1018.3
20200806110329 61 123 1.0 4.0 0.00 0.00 0.00 89 1018.3
20200806110225 61 123 1.0 4.0 0.00 0.00 0.00 89 1018.3
20200806110150 61 123 1.0 4.0 0.00 0.00 0.00 89 1018.3
20200806110034 61 123 1.0 4.0 0.00 0.00 0.00 89 1018.3
20200806105930 61 115 1.0 4.0 0.00 0.00 0.00 89 1018.3
20200806105827 61 104 2.0 4.0 0.00 0.00 0.00 89 1018.3
20200806105741 61 100 1.0 5.0 0.00 0.00 0.00 89 1018.2
20200806105634 61 103 2.0 5.0 0.00 0.00 0.00 89 1018.2
20200806105529 61 95 3.0 5.0 0.00 0.00 0.00 89 1018.1
20200806105426 61 90 3.0 5.0 0.00 0.00 0.00 89 1018.1
20200806105342 61 90 2.0 5.0 0.00 0.00 0.00 89 1018.2
20200806105238 61 97 2.0 5.0 0.00 0.00 0.00 89 1018.2
20200806105138 61 90 2.0 5.0 0.00 0.00 0.00 89 1018.2
20200806105034 61 80 2.0 5.0 0.00 0.00 0.00 89 1018.2
20200806104928 62 88 2.0 4.0 0.00 0.00 0.00 89 1018.2
20200806104843 62 94 2.0 4.0 0.00 0.00 0.00 89 1018.2
20200806104740 62 116 2.0 4.0 0.00 0.00 0.00 89 1018.2
20200806104636 62 88 2.0 4.0 0.00 0.00 0.00 89 1018.2
20200806104532 62 86 2.0 4.0 0.00 0.00 0.00 89 1018.2
20200806104432 62 75 2.0 4.0 0.00 0.00 0.00 89 1018.2
20200806104328 62 88 2.0 6.0 0.00 0.00 0.00 89 1018.2
20200806104243 62 160 2.0 6.0 0.00 0.00 0.00 89 1018.1
20200806104138 62 101 2.0 6.0 0.00 0.00 0.00 89 1018.1
20200806104034 62 83 2.0 6.0 0.00 0.00 0.00 90 1018.2
20200806103928 62 100 2.0 6.0 0.00 0.00 0.00 90 1018.1
20200806103825 62 66 3.0 6.0 0.00 0.00 0.00 90 1018.2
20200806103727 62 90 3.0 6.0 0.00 0.00 0.00 90 1018.2
20200806103648 62 103 3.0 6.0 0.00 0.00 0.00 90 1018.2
20200806103539 62 96 3.0 6.0 0.00 0.00 0.00 90 1018.2
20200806103434 62 94 2.0 5.0 0.00 0.00 0.00 90 1018.2
20200806103328 62 86 2.0 4.0 0.00 0.00 0.00 89 1018.3
20200806103226 62 105 1.0 4.0 0.00 0.00 0.00 89 1018.2
20200806103141 62 106 1.0 4.0 0.00 0.00 0.00 90 1018.2
20200806103040 62 105 1.0 4.0 0.00 0.00 0.00 90 1018.3
20200806102937 62 90 2.0 4.0 0.00 0.00 0.00 89 1018.2
20200806102834 62 88 3.0 4.0 0.00 0.00 0.00 89 1018.2
20200806102729 61 76 2.0 5.0 0.00 0.00 0.00 89 1018.2
20200806102644 62 104 2.0 5.0 0.00 0.00 0.00 89 1018.3
20200806102541 62 115 2.0 5.0 0.00 0.00 0.00 89 1018.2
20200806102435 62 99 2.0 5.0 0.00 0.00 0.00 89 1018.2
20200806102335 61 112 2.0 5.0 0.00 0.00 0.00 89 1018.2
20200806102231 62 96 3.0 5.0 0.00 0.00 0.00 89 1018.2
20200806102127 62 113 2.0 5.0 0.00 0.00 0.00 89 1018.2
20200806102043 62 99 2.0 4.0 0.00 0.00 0.00 89 1018.2
20200806101938 62 113 1.0 6.0 0.00 0.00 0.00 89 1018.3
20200806101835 61 129 1.0 6.0 0.00 0.00 0.00 89 1018.2
20200806101729 61 110 2.0 6.0 0.00 0.00 0.00 89 1018.2
20200806101630 61 138 2.0 6.0 0.00 0.00 0.00 89 1018.1
20200806101543 61 133 2.0 6.0 0.00 0.00 0.00 89 1018.2
20200806101443 61 116 2.0 6.0 0.00 0.00 0.00 89 1018.1
20200806101334 61 103 2.0 6.0 0.00 0.00 0.00 89 1018.1
20200806101233 62 112 3.0 6.0 0.00 0.00 0.00 89 1018.2
20200806101126 62 95 3.0 6.0 0.00 0.00 0.00 89 1018.1
20200806101045 62 102 3.0 6.0 0.00 0.00 0.00 89 1018.2
20200806100936 62 111 2.0 6.0 0.00 0.00 0.00 90 1018.2
20200806100834 62 113 2.0 3.0 0.00 0.00 0.00 90 1018.2
20200806100730 62 93 2.0 3.0 0.00 0.00 0.00 90 1018.2
20200806100630 62 121 2.0 3.0 0.00 0.00 0.00 90 1018.3
20200806100543 62 128 1.0 5.0 0.00 0.00 0.00 90 1018.3
20200806100439 62 129 2.0 5.0 0.00 0.00 0.00 90 1018.3
20200806100332 62 126 2.0 5.0 0.00 0.00 0.00 90 1018.3
20200806100229 62 130 2.0 5.0 0.00 0.00 0.00 90 1018.3
20200806100128 62 112 2.0 5.0 0.00 0.00 0.00 90 1018.2
20200806100024 62 144 1.0 5.0 0.00 0.00 0.00 90 1018.2
20200806095939 62 128 1.0 5.0 0.00 0.00 0.00 90 1018.2
20200806095836 62 128 2.0 5.0 0.00 0.00 0.00 90 1018.2
20200806095729 61 126 2.0 5.0 0.00 0.00 0.00 90 1018.2
20200806095625 62 114 2.0 5.0 0.00 0.00 0.00 90 1018.2
20200806095541 62 133 2.0 4.0 0.00 0.00 0.00 90 1018.2
20200806095441 61 111 2.0 5.0 0.00 0.00 0.00 90 1018.2
20200806095339 61 110 2.0 4.0 0.00 0.00 0.00 90 1018.1
20200806095237 61 118 2.0 5.0 0.00 0.00 0.00 90 1018.2
20200806095132 61 120 2.0 4.0 0.00 0.00 0.00 90 1018.1
20200806095026 61 129 2.0 3.0 0.00 0.00 0.00 90 1018.2
20200806094943 61 108 2.0 3.0 0.00 0.00 0.00 90 1018.2
20200806094838 61 109 1.0 3.0 0.00 0.00 0.00 90 1018.2
20200806094736 61 115 1.0 3.0 0.00 0.00 0.00 90 1018.2
20200806094633 61 117 2.0 3.0 0.00 0.00 0.00 90 1018.2
20200806094528 61 118 2.0 3.0 0.00 0.00 0.00 90 1018.2
20200806094444 61 105 2.0 3.0 0.00 0.00 0.00 90 1018.2
20200806094344 61 110 1.0 3.0 0.00 0.00 0.00 90 1018.2
20200806094238 61 89 2.0 3.0 0.00 0.00 0.00 90 1018.2
20200806094132 61 120 2.0 3.0 0.00 0.00 0.00 90 1018.2
20200806094033 61 90 2.0 3.0 0.00 0.00 0.00 90 1018.2
20200806093932 61 112 1.0 3.0 0.00 0.00 0.00 90 1018.2
20200806093843 61 110 1.0 4.0 0.00 0.00 0.00 90 1018.2
20200806093738 61 109 1.0 4.0 0.00 0.00 0.00 90 1018.2
20200806093636 61 126 1.0 4.0 0.00 0.00 0.00 90 1018.2
20200806093533 61 118 1.0 4.0 0.00 0.00 0.00 90 1018.2
20200806093426 61 119 2.0 4.0 0.00 0.00 0.00 90 1018.2
20200806093326 61 116 2.0 4.0 0.00 0.00 0.00 90 1018.2
20200806093245 61 114 2.0 4.0 0.00 0.00 0.00 90 1018.1
20200806093138 61 132 2.0 4.0 0.00 0.00 0.00 90 1018.1
20200806093033 61 105 2.0 4.0 0.00 0.00 0.00 90 1018.1
20200806092929 61 102 2.0 5.0 0.00 0.00 0.00 90 1018.1
20200806092829 61 159 1.0 5.0 0.00 0.00 0.00 90 1018.1
20200806092743 61 100 1.0 5.0 0.00 0.00 0.00 90 1018.1
20200806092641 61 131 2.0 5.0 0.00 0.00 0.00 90 1018.1
20200806092541 61 127 2.0 5.0 0.00 0.00 0.00 90 1018.1
20200806092439 61 108 2.0 5.0 0.00 0.00 0.00 90 1018.1
20200806092333 61 142 2.0 5.0 0.00 0.00 0.00 90 1018.1
20200806092229 61 135 1.0 5.0 0.00 0.00 0.00 90 1018.1
20200806092144 61 134 2.0 5.0 0.00 0.00 0.00 90 1018.1
20200806092041 61 130 2.0 5.0 0.00 0.00 0.00 90 1018.1
20200806091939 61 132 2.0 4.0 0.00 0.00 0.00 90 1018.1
20200806091840 61 130 2.0 4.0 0.00 0.00 0.00 90 1018.1
20200806091736 61 142 2.0 4.0 0.00 0.00 0.00 90 1018.1
20200806091635 61 146 1.0 4.0 0.00 0.00 0.00 90 1018.0
20200806091528 61 130 1.0 4.0 0.00 0.00 0.00 90 1018.0
20200806091445 61 146 1.0 4.0 0.00 0.00 0.00 90 1018.0
20200806091340 61 112 1.0 4.0 0.00 0.00 0.00 90 1018.0
20200806091236 61 112 2.0 5.0 0.00 0.00 0.00 90 1018.0
20200806091136 61 128 2.0 5.0 0.00 0.00 0.00 90 1017.9
20200806091033 61 98 2.0 5.0 0.00 0.00 0.00 90 1017.9
20200806090929 61 134 2.0 5.0 0.00 0.00 0.00 90 1018.0
20200806090844 61 126 2.0 5.0 0.00 0.00 0.00 90 1017.9
20200806090740 61 117 2.0 5.0 0.00 0.00 0.00 90 1017.9
20200806090637 61 105 2.0 5.0 0.00 0.00 0.00 90 1018.0
20200806090533 61 132 2.0 7.0 0.00 0.00 0.00 90 1017.9
20200806090434 61 95 3.0 7.0 0.00 0.00 0.00 90 1018.0
20200806090328 61 95 3.0 7.0 0.00 0.00 0.00 90 1018.0
20200806090225 61 94 2.0 7.0 0.00 0.00 0.00 90 1018.0
20200806090149 61 121 3.0 7.0 0.00 0.00 0.00 90 1018.0
20200806090033 61 113 3.0 7.0 0.00 0.00 0.00 90 1018.1
20200806085943 61 99 3.0 7.0 0.00 0.00 0.00 90 1018.0
20200806085841 61 77 3.0 7.0 0.00 0.00 0.00 90 1018.0
20200806085742 61 88 3.0 7.0 0.00 0.00 0.00 90 1018.0
20200806085637 61 102 3.0 7.0 0.00 0.00 0.00 90 1018.0
20200806085533 61 154 3.0 7.0 0.00 0.00 0.00 90 1018.0
20200806085428 61 88 2.0 6.0 0.00 0.00 0.00 90 1018.0
20200806085346 61 111 2.0 6.0 0.00 0.00 0.00 90 1018.0
20200806085239 61 105 3.0 6.0 0.00 0.00 0.00 90 1018.0
20200806085135 61 103 3.0 6.0 0.00 0.00 0.00 90 1018.0
20200806085037 61 109 2.0 6.0 0.00 0.00 0.00 90 1018.0
20200806084934 61 105 2.0 6.0 0.00 0.00 0.00 90 1018.0
20200806084832 61 113 2.0 6.0 0.00 0.00 0.00 90 1018.0
20200806084726 61 98 2.0 6.0 0.00 0.00 0.00 90 1018.0
20200806084641 61 100 3.0 6.0 0.00 0.00 0.00 90 1018.0
20200806084539 61 115 3.0 6.0 0.00 0.00 0.00 90 1018.0
20200806084436 61 104 2.0 6.0 0.00 0.00 0.00 90 1018.0
20200806084333 61 80 2.0 3.0 0.00 0.00 0.00 90 1018.0
20200806084230 61 111 2.0 3.0 0.00 0.00 0.00 90 1018.0
20200806084127 61 117 1.0 3.0 0.00 0.00 0.00 90 1018.1
20200806084043 61 123 1.0 3.0 0.00 0.00 0.00 90 1018.0
20200806083940 61 123 1.0 4.0 0.00 0.00 0.00 90 1018.0
20200806083835 61 123 0.0 4.0 0.00 0.00 0.00 90 1018.0
20200806083734 61 115 0.0 4.0 0.00 0.00 0.00 90 1018.0
20200806083633 61 115 1.0 4.0 0.00 0.00 0.00 90 1018.0
20200806083528 61 107 2.0 4.0 0.00 0.00 0.00 90 1018.0
20200806083426 61 97 2.0 4.0 0.00 0.00 0.00 90 1018.0
20200806083343 61 88 2.0 4.0 0.00 0.00 0.00 90 1017.9
20200806083239 61 87 2.0 4.0 0.00 0.00 0.00 90 1018.0
20200806083131 61 79 2.0 5.0 0.00 0.00 0.00 90 1017.9
20200806083029 61 111 2.0 4.0 0.00 0.00 0.00 90 1018.0
20200806082927 61 92 2.0 4.0 0.00 0.00 0.00 90 1017.9
20200806082843 61 108 2.0 5.0 0.00 0.00 0.00 90 1017.9
20200806082738 61 119 1.0 5.0 0.00 0.00 0.00 89 1017.9
20200806082634 61 94 2.0 5.0 0.00 0.00 0.00 89 1018.0
20200806082532 61 105 2.0 5.0 0.00 0.00 0.00 89 1017.9
20200806082427 61 92 1.0 3.0 0.00 0.00 0.00 89 1017.9
20200806082343 61 92 1.0 3.0 0.00 0.00 0.00 89 1018.0
20200806082225 61 116 0.0 0.0 0.00 0.00 0.00 89 1018.0
20200806082141 61 121 0.0 0.0 0.00 0.00 0.00 89 1018.0
20200806082037 61 126 0.0 0.0 0.00 0.00 0.00 89 1017.9
20200806081932 61 146 0.0 0.0 0.00 0.00 0.00 89 1018.0
20200806081827 61 146 0.0 0.0 0.00 0.00 0.00 89 1018.0
20200806081745 61 146 0.0 0.0 0.00 0.00 0.00 88 1018.0
20200806081640 61 146 0.0 1.0 0.00 0.00 0.00 88 1018.0
20200806081535 61 146 0.0 2.0 0.00 0.00 0.00 89 1018.1
20200806081436 61 146 0.0 2.0 0.00 0.00 0.00 88 1018.1
20200806081332 61 146 0.0 2.0 0.00 0.00 0.00 88 1018.0
20200806081228 61 146 0.0 2.0 0.00 0.00 0.00 88 1018.0
20200806081125 61 146 0.0 2.0 0.00 0.00 0.00 88 1018.0
20200806081041 61 146 0.0 2.0 0.00 0.00 0.00 88 1018.0
20200806080938 61 146 0.0 2.0 0.00 0.00 0.00 88 1018.0
20200806080836 61 146 0.0 2.0 0.00 0.00 0.00 88 1018.0
20200806080733 61 146 1.0 2.0 0.00 0.00 0.00 88 1018.0
20200806080631 61 146 1.0 2.0 0.00 0.00 0.00 88 1018.0
20200806080527 61 144 1.0 2.0 0.00 0.00 0.00 88 1018.0
20200806080444 61 158 0.0 2.0 0.00 0.00 0.00 88 1017.9
20200806080339 61 158 0.0 2.0 0.00 0.00 0.00 88 1018.0
20200806080234 61 158 0.0 2.0 0.00 0.00 0.00 88 1018.0
20200806080131 61 158 0.0 2.0 0.00 0.00 0.00 88 1017.9
20200806080032 61 158 0.0 2.0 0.00 0.00 0.00 88 1017.9
20200806075928 61 158 0.0 2.0 0.00 0.00 0.00 88 1017.9
20200806075844 61 158 0.0 3.0 0.00 0.00 0.00 88 1017.9
20200806075739 61 158 0.0 3.0 0.00 0.00 0.00 88 1017.9
20200806075636 61 158 1.0 4.0 0.00 0.00 0.00 88 1017.8
20200806075534 61 158 0.0 5.0 0.00 0.00 0.00 88 1017.8
20200806075426 61 158 0.0 5.0 0.00 0.00 0.00 88 1017.9
20200806075327 61 158 0.0 5.0 0.00 0.00 0.00 88 1017.9
20200806075245 61 158 0.0 5.0 0.00 0.00 0.00 88 1017.9
20200806075140 61 158 0.0 5.0 0.00 0.00 0.00 88 1017.8
20200806075038 61 158 1.0 5.0 0.00 0.00 0.00 88 1017.8
20200806074930 61 150 2.0 5.0 0.00 0.00 0.00 88 1017.7
20200806074825 61 108 2.0 5.0 0.00 0.00 0.00 88 1017.8
20200806074742 61 132 2.0 5.0 0.00 0.00 0.00 88 1017.7
20200806074643 61 139 2.0 5.0 0.00 0.00 0.00 88 1017.7
20200806074538 61 136 1.0 3.0 0.00 0.00 0.00 88 1017.7
20200806074435 61 156 1.0 3.0 0.00 0.00 0.00 88 1017.7
20200806074332 61 156 1.0 3.0 0.00 0.00 0.00 88 1017.6
20200806074236 61 141 1.0 3.0 0.00 0.00 0.00 87 1017.7
20200806074126 61 141 2.0 3.0 0.00 0.00 0.00 87 1017.6
20200806074043 61 141 2.0 3.0 0.00 0.00 0.00 87 1017.7
20200806073942 61 133 2.0 3.0 0.00 0.00 0.00 87 1017.6
20200806073839 61 125 2.0 3.0 0.00 0.00 0.00 87 1017.7
20200806073736 61 151 2.0 3.0 0.00 0.00 0.00 87 1017.6
20200806073632 61 102 1.0 3.0 0.00 0.00 0.00 87 1017.6
20200806073526 61 143 1.0 3.0 0.00 0.00 0.00 87 1017.6
20200806073441 61 144 2.0 3.0 0.00 0.00 0.00 87 1017.7
20200806073340 61 130 2.0 3.0 0.00 0.00 0.00 87 1017.7
20200806073239 61 130 2.0 2.0 0.00 0.00 0.00 87 1017.7
20200806073135 61 126 1.0 2.0 0.00 0.00 0.00 87 1017.7
20200806073031 61 133 1.0 3.0 0.00 0.00 0.00 87 1017.7
20200806072925 61 107 1.0 3.0 0.00 0.00 0.00 87 1017.8
20200806072840 61 107 1.0 3.0 0.00 0.00 0.00 87 1017.8
20200806072735 61 107 1.0 3.0 0.00 0.00 0.00 87 1017.7
20200806072630 61 105 1.0 3.0 0.00 0.00 0.00 87 1017.7
20200806072532 61 105 1.0 3.0 0.00 0.00 0.00 87 1017.7
20200806072428 61 105 1.0 3.0 0.00 0.00 0.00 87 1017.7
20200806072344 61 105 1.0 3.0 0.00 0.00 0.00 87 1017.7
20200806072240 61 99 1.0 3.0 0.00 0.00 0.00 87 1017.7
20200806072138 61 101 1.0 2.0 0.00 0.00 0.00 87 1017.7
20200806072032 61 91 1.0 2.0 0.00 0.00 0.00 87 1017.7
20200806071927 61 99 1.0 2.0 0.00 0.00 0.00 87 1017.6
20200806071827 61 110 1.0 3.0 0.00 0.00 0.00 87 1017.6
20200806071725 61 111 1.0 3.0 0.00 0.00 0.00 87 1017.7
20200806071642 61 111 1.0 3.0 0.00 0.00 0.00 87 1017.7
20200806071537 61 111 1.0 3.0 0.00 0.00 0.00 87 1017.6
20200806071433 61 109 1.0 3.0 0.00 0.00 0.00 87 1017.7
20200806071327 61 106 1.0 3.0 0.00 0.00 0.00 87 1017.7
20200806071244 61 106 1.0 3.0 0.00 0.00 0.00 87 1017.7
20200806071137 61 103 1.0 3.0 0.00 0.00 0.00 87 1017.7
20200806071037 61 103 1.0 3.0 0.00 0.00 0.00 87 1017.7
20200806070936 61 118 1.0 3.0 0.00 0.00 0.00 87 1017.7
20200806070832 61 119 1.0 3.0 0.00 0.00 0.00 87 1017.8
20200806070727 61 119 1.0 3.0 0.00 0.00 0.00 87 1017.8
20200806070644 61 121 1.0 2.0 0.00 0.00 0.00 86 1017.8
20200806070538 61 121 1.0 2.0 0.00 0.00 0.00 86 1017.9
20200806070434 61 121 1.0 2.0 0.00 0.00 0.00 86 1017.9
20200806070337 61 121 1.0 2.0 0.00 0.00 0.00 86 1017.9
20200806070231 61 121 1.0 2.0 0.00 0.00 0.00 85 1017.8
20200806070152 61 127 1.0 2.0 0.00 0.00 0.00 85 1017.8
20200806070045 61 127 0.0 2.0 0.00 0.00 0.00 85 1017.8
20200806065937 61 127 0.0 2.0 0.00 0.00 0.00 85 1017.8
20200806065835 61 127 0.0 2.0 0.00 0.00 0.00 85 1017.9
20200806065731 61 127 0.0 2.0 0.00 0.00 0.00 85 1017.9
20200806065631 62 127 0.0 2.0 0.00 0.00 0.00 85 1017.9
20200806065530 62 127 0.0 2.0 0.00 0.00 0.00 85 1017.9
20200806065450 62 127 0.0 2.0 0.00 0.00 0.00 85 1017.9
20200806065346 62 127 0.0 2.0 0.00 0.00 0.00 85 1017.9
20200806065234 62 127 0.0 2.0 0.00 0.00 0.00 85 1017.9
20200806065128 62 127 1.0 2.0 0.00 0.00 0.00 84 1018.0
20200806065043 62 127 1.0 2.0 0.00 0.00 0.00 84 1018.0
20200806064943 62 127 1.0 2.0 0.00 0.00 0.00 84 1018.0
20200806064838 62 192 1.0 2.0 0.00 0.00 0.00 84 1018.0
20200806064733 62 192 0.0 1.0 0.00 0.00 0.00 84 1017.9
20200806064632 62 192 0.0 1.0 0.00 0.00 0.00 84 1017.9
20200806064545 62 192 0.0 1.0 0.00 0.00 0.00 84 1017.9
20200806064445 62 192 0.0 1.0 0.00 0.00 0.00 84 1017.9
20200806064338 62 192 0.0 1.0 0.00 0.00 0.00 84 1017.9
20200806064236 62 192 0.0 0.0 0.00 0.00 0.00 84 1017.9
20200806064135 62 192 0.0 0.0 0.00 0.00 0.00 84 1017.9
20200806064031 62 192 0.0 0.0 0.00 0.00 0.00 84 1017.9
20200806063942 62 192 0.0 0.0 0.00 0.00 0.00 84 1017.9
20200806063840 62 192 0.0 0.0 0.00 0.00 0.00 84 1017.9
20200806063735 62 192 0.0 0.0 0.00 0.00 0.00 84 1017.8
20200806063633 62 192 0.0 0.0 0.00 0.00 0.00 84 1017.9
20200806063532 62 192 0.0 0.0 0.00 0.00 0.00 84 1017.9
20200806063427 62 192 0.0 0.0 0.00 0.00 0.00 84 1017.9
20200806063340 62 192 0.0 0.0 0.00 0.00 0.00 84 1017.9
20200806063236 62 192 0.0 0.0 0.00 0.00 0.00 84 1017.8
20200806063131 62 192 0.0 0.0 0.00 0.00 0.00 84 1017.9
20200806063028 62 192 0.0 1.0 0.00 0.00 0.00 84 1017.9
20200806062949 62 192 0.0 1.0 0.00 0.00 0.00 84 1017.9
20200806062825 63 192 0.0 1.0 0.00 0.00 0.00 84 1017.9
20200806062740 63 192 0.0 1.0 0.00 0.00 0.00 84 1017.9
20200806062637 63 192 0.0 1.0 0.00 0.00 0.00 84 1017.9
20200806062533 63 192 0.0 1.0 0.00 0.00 0.00 84 1017.9
20200806062429 63 192 0.0 1.0 0.00 0.00 0.00 84 1017.9
20200806062328 63 192 0.0 1.0 0.00 0.00 0.00 84 1017.9
20200806062243 63 192 0.0 2.0 0.00 0.00 0.00 84 1017.8
20200806062140 63 192 0.0 2.0 0.00 0.00 0.00 84 1017.8
20200806062038 63 192 0.0 2.0 0.00 0.00 0.00 84 1017.8
20200806061936 63 192 0.0 2.0 0.00 0.00 0.00 84 1017.8
20200806061829 63 192 0.0 2.0 0.00 0.00 0.00 84 1017.8
20200806061745 63 192 0.0 2.0 0.00 0.00 0.00 84 1017.8
20200806061640 63 192 1.0 2.0 0.00 0.00 0.00 84 1017.7
20200806061536 63 192 1.0 2.0 0.00 0.00 0.00 84 1017.8
20200806061436 63 198 1.0 2.0 0.00 0.00 0.00 84 1017.8
20200806061331 63 201 1.0 2.0 0.00 0.00 0.00 84 1017.7
20200806061226 63 201 0.0 2.0 0.00 0.00 0.00 84 1017.7
20200806061142 63 207 0.0 2.0 0.00 0.00 0.00 84 1017.7
20200806061038 63 207 0.0 2.0 0.00 0.00 0.00 84 1017.7
20200806060933 63 207 0.0 2.0 0.00 0.00 0.00 84 1017.7
20200806060830 63 207 0.0 2.0 0.00 0.00 0.00 84 1017.7
20200806060725 63 207 1.0 2.0 0.00 0.00 0.00 84 1017.7
20200806060627 63 207 1.0 2.0 0.00 0.00 0.00 84 1017.7
20200806060543 63 207 0.0 2.0 0.00 0.00 0.00 84 1017.7
20200806060441 63 207 1.0 2.0 0.00 0.00 0.00 84 1017.7
20200806060335 63 207 0.0 2.0 0.00 0.00 0.00 84 1017.8
20200806060230 63 141 0.0 1.0 0.00 0.00 0.00 84 1017.8
20200806060144 63 141 0.0 1.0 0.00 0.00 0.00 84 1017.7
20200806060040 63 141 0.0 1.0 0.00 0.00 0.00 84 1017.7
20200806055942 63 141 0.0 1.0 0.00 0.00 0.00 84 1017.8
20200806055839 63 140 0.0 1.0 0.00 0.00 0.00 84 1017.7
20200806055735 63 140 0.0 1.0 0.00 0.00 0.00 84 1017.8
20200806055633 63 140 0.0 1.0 0.00 0.00 0.00 85 1017.8
20200806055525 63 140 0.0 1.0 0.00 0.00 0.00 85 1017.7
20200806055441 63 140 0.0 1.0 0.00 0.00 0.00 85 1017.8
20200806055339 63 140 0.0 2.0 0.00 0.00 0.00 85 1017.8
20200806055237 63 140 0.0 2.0 0.00 0.00 0.00 85 1017.8
20200806055133 63 140 0.0 2.0 0.00 0.00 0.00 85 1017.8
20200806055028 63 140 0.0 2.0 0.00 0.00 0.00 85 1017.8
20200806054943 63 140 0.0 2.0 0.00 0.00 0.00 85 1017.8
20200806054838 63 140 0.0 2.0 0.00 0.00 0.00 85 1017.8
20200806054734 63 140 0.0 2.0 0.00 0.00 0.00 85 1017.8
20200806054629 63 140 0.0 2.0 0.00 0.00 0.00 85 1017.8
20200806054528 63 140 0.0 2.0 0.00 0.00 0.00 85 1017.7
20200806054428 63 140 1.0 2.0 0.00 0.00 0.00 85 1017.8
20200806054342 63 140 1.0 2.0 0.00 0.00 0.00 85 1017.7
20200806054238 63 140 1.0 2.0 0.00 0.00 0.00 85 1017.7
20200806054133 63 140 1.0 2.0 0.00 0.00 0.00 85 1017.7
20200806054030 63 140 1.0 2.0 0.00 0.00 0.00 85 1017.7
20200806053926 63 140 1.0 2.0 0.00 0.00 0.00 85 1017.7
20200806053827 63 140 0.0 2.0 0.00 0.00 0.00 85 1017.7
20200806053743 63 140 0.0 2.0 0.00 0.00 0.00 85 1017.7
20200806053640 63 140 0.0 1.0 0.00 0.00 0.00 85 1017.7
20200806053537 63 140 0.0 2.0 0.00 0.00 0.00 85 1017.7
20200806053434 63 140 0.0 2.0 0.00 0.00 0.00 85 1017.7
20200806053328 63 141 0.0 2.0 0.00 0.00 0.00 85 1017.8
20200806053224 63 140 0.0 3.0 0.00 0.00 0.00 85 1017.8
20200806053141 63 140 0.0 3.0 0.00 0.00 0.00 85 1017.7
20200806053041 63 140 0.0 3.0 0.00 0.00 0.00 85 1017.7
20200806052937 63 140 0.0 3.0 0.00 0.00 0.00 85 1017.7
20200806052832 63 141 1.0 3.0 0.00 0.00 0.00 85 1017.7
20200806052729 63 141 1.0 3.0 0.00 0.00 0.00 85 1017.7
20200806052625 63 141 2.0 3.0 0.00 0.00 0.00 85 1017.7
20200806052540 63 140 2.0 3.0 0.00 0.00 0.00 85 1017.7
20200806052434 63 141 2.0 3.0 0.00 0.00 0.00 84 1017.7
20200806052333 63 141 2.0 2.0 0.00 0.00 0.00 84 1017.7
20200806052231 63 144 2.0 2.0 0.00 0.00 0.00 84 1017.7
20200806052143 63 144 1.0 2.0 0.00 0.00 0.00 84 1017.8
20200806052038 63 144 1.0 2.0 0.00 0.00 0.00 84 1017.7
20200806051933 63 144 1.0 2.0 0.00 0.00 0.00 84 1017.7
20200806051829 63 144 0.0 2.0 0.00 0.00 0.00 84 1017.8
20200806051743 63 144 0.0 1.0 0.00 0.00 0.00 84 1017.7
20200806051644 63 144 0.0 1.0 0.00 0.00 0.00 84 1017.8
20200806051540 63 144 0.0 1.0 0.00 0.00 0.00 84 1017.8
20200806051435 63 144 0.0 1.0 0.00 0.00 0.00 84 1017.7
20200806051331 63 144 0.0 2.0 0.00 0.00 0.00 84 1017.7
20200806051228 63 144 0.0 2.0 0.00 0.00 0.00 84 1017.8
20200806051143 63 144 0.0 2.0 0.00 0.00 0.00 84 1017.7
20200806051042 63 144 0.0 2.0 0.00 0.00 0.00 84 1017.7
20200806050941 63 144 0.0 2.0 0.00 0.00 0.00 84 1017.8
20200806050837 63 144 0.0 2.0 0.00 0.00 0.00 84 1017.7
20200806050732 63 144 0.0 2.0 0.00 0.00 0.00 84 1017.7
20200806050629 63 144 1.0 2.0 0.00 0.00 0.00 84 1017.7
20200806050543 63 144 1.0 2.0 0.00 0.00 0.00 84 1017.7
20200806050440 63 144 1.0 2.0 0.00 0.00 0.00 84 1017.7
20200806050336 63 144 1.0 2.0 0.00 0.00 0.00 84 1017.7
20200806050240 63 146 0.0 1.0 0.00 0.00 0.00 84 1017.7
20200806050157 63 146 0.0 0.0 0.00 0.00 0.00 84 1017.7
20200806050044 63 148 0.0 0.0 0.00 0.00 0.00 84 1017.7
20200806045935 63 148 0.0 0.0 0.00 0.00 0.00 84 1017.7
20200806045832 63 148 0.0 0.0 0.00 0.00 0.00 83 1017.7
20200806045729 63 148 0.0 0.0 0.00 0.00 0.00 83 1017.8
20200806045625 63 148 0.0 0.0 0.00 0.00 0.00 83 1017.7
20200806045540 63 148 0.0 0.0 0.00 0.00 0.00 84 1017.7
20200806045439 63 148 0.0 0.0 0.00 0.00 0.00 84 1017.7
20200806045335 63 148 0.0 1.0 0.00 0.00 0.00 84 1017.7
20200806045232 63 148 0.0 1.0 0.00 0.00 0.00 83 1017.7
20200806045127 63 148 0.0 1.0 0.00 0.00 0.00 83 1017.7
20200806045043 63 148 0.0 1.0 0.00 0.00 0.00 83 1017.7
20200806044940 63 148 0.0 1.0 0.00 0.00 0.00 83 1017.7
20200806044838 63 148 0.0 1.0 0.00 0.00 0.00 83 1017.7
20200806044735 63 148 0.0 1.0 0.00 0.00 0.00 83 1017.7
20200806044631 63 148 0.0 1.0 0.00 0.00 0.00 82 1017.7
20200806044527 63 148 0.0 1.0 0.00 0.00 0.00 82 1017.7
20200806044442 63 148 0.0 1.0 0.00 0.00 0.00 82 1017.7
20200806044339 63 148 0.0 1.0 0.00 0.00 0.00 82 1017.7
20200806044234 63 148 0.0 1.0 0.00 0.00 0.00 82 1017.7
20200806044130 63 148 0.0 1.0 0.00 0.00 0.00 82 1017.7
20200806044030 63 148 0.0 1.0 0.00 0.00 0.00 82 1017.7
20200806043926 63 148 0.0 1.0 0.00 0.00 0.00 82 1017.7
20200806043843 63 148 0.0 1.0 0.00 0.00 0.00 82 1017.7
20200806043737 63 148 0.0 1.0 0.00 0.00 0.00 82 1017.7
20200806043633 63 148 0.0 1.0 0.00 0.00 0.00 82 1017.6
20200806043527 63 148 0.0 1.0 0.00 0.00 0.00 82 1017.6
20200806043443 63 148 0.0 1.0 0.00 0.00 0.00 82 1017.6
20200806043343 63 148 0.0 1.0 0.00 0.00 0.00 82 1017.6
20200806043240 63 148 0.0 1.0 0.00 0.00 0.00 82 1017.6
20200806043137 63 148 0.0 1.0 0.00 0.00 0.00 82 1017.6
20200806043034 63 148 1.0 1.0 0.00 0.00 0.00 82 1017.7
20200806042930 63 148 1.0 1.0 0.00 0.00 0.00 82 1017.6
20200806042827 63 148 0.0 2.0 0.00 0.00 0.00 82 1017.6
20200806042742 63 141 0.0 2.0 0.00 0.00 0.00 81 1017.6
20200806042641 64 127 0.0 2.0 0.00 0.00 0.00 81 1017.6
20200806042535 64 127 0.0 2.0 0.00 0.00 0.00 81 1017.6
20200806042431 64 127 0.0 2.0 0.00 0.00 0.00 81 1017.5
20200806042327 64 127 0.0 2.0 0.00 0.00 0.00 81 1017.5
20200806042245 64 127 0.0 2.0 0.00 0.00 0.00 81 1017.5
20200806042141 64 127 1.0 2.0 0.00 0.00 0.00 80 1017.5
20200806042036 64 127 1.0 2.0 0.00 0.00 0.00 80 1017.4
20200806041935 64 127 1.0 2.0 0.00 0.00 0.00 80 1017.5
20200806041833 64 127 0.0 1.0 0.00 0.00 0.00 80 1017.4
20200806041726 64 127 0.0 1.0 0.00 0.00 0.00 80 1017.4
20200806041642 64 127 0.0 1.0 0.00 0.00 0.00 80 1017.4
20200806041538 64 127 0.0 1.0 0.00 0.00 0.00 80 1017.4
20200806041434 64 127 0.0 2.0 0.00 0.00 0.00 80 1017.4
20200806041328 64 127 0.0 2.0 0.00 0.00 0.00 80 1017.3
20200806041229 64 127 0.0 2.0 0.00 0.00 0.00 80 1017.3
20200806041145 64 127 0.0 2.0 0.00 0.00 0.00 80 1017.3
20200806041042 64 127 0.0 2.0 0.00 0.00 0.00 80 1017.2
20200806040936 64 127 0.0 2.0 0.00 0.00 0.00 80 1017.2
20200806040832 64 127 0.0 2.0 0.00 0.00 0.00 79 1017.2
20200806040730 64 127 0.0 2.0 0.00 0.00 0.00 79 1017.2
20200806040624 64 127 1.0 2.0 0.00 0.00 0.00 79 1017.2
20200806040525 64 127 0.0 2.0 0.00 0.00 0.00 79 1017.2
20200806040442 64 127 0.0 2.0 0.00 0.00 0.00 79 1017.1
20200806040338 64 127 1.0 2.0 0.00 0.00 0.00 79 1017.2
20200806040237 64 127 1.0 2.0 0.00 0.00 0.00 79 1017.1
20200806040130 64 127 1.0 2.0 0.00 0.00 0.00 79 1017.1
20200806040025 64 127 1.0 2.0 0.00 0.00 0.00 79 1017.1
20200806035940 64 127 1.0 2.0 0.00 0.00 0.00 79 1017.1
20200806035835 64 127 1.0 2.0 0.00 0.00 0.00 79 1017.1
20200806035736 64 127 1.0 2.0 0.00 0.00 0.00 79 1017.1
20200806035632 64 127 1.0 2.0 0.00 0.00 0.00 79 1017.1
20200806035527 65 127 0.0 2.0 0.00 0.00 0.00 79 1017.1
20200806035424 65 127 0.0 1.0 0.00 0.00 0.00 79 1017.1
20200806035342 65 127 0.0 1.0 0.00 0.00 0.00 79 1017.0
20200806035238 65 127 0.0 1.0 0.00 0.00 0.00 79 1017.1
20200806035132 65 127 0.0 1.0 0.00 0.00 0.00 78 1017.0
20200806035033 65 127 0.0 1.0 0.00 0.00 0.00 78 1017.0
20200806034929 65 127 0.0 1.0 0.00 0.00 0.00 78 1017.0
20200806034825 65 127 0.0 1.0 0.00 0.00 0.00 78 1017.0
20200806034740 65 127 0.0 1.0 0.00 0.00 0.00 78 1017.0
20200806034635 65 127 0.0 1.0 0.00 0.00 0.00 78 1017.0
20200806034529 65 127 0.0 1.0 0.00 0.00 0.00 78 1017.0
20200806034425 65 127 0.0 1.0 0.00 0.00 0.00 78 1016.9
20200806034326 65 127 0.0 1.0 0.00 0.00 0.00 77 1016.9
20200806034243 65 127 0.0 1.0 0.00 0.00 0.00 77 1016.9
20200806034137 65 127 0.0 1.0 0.00 0.00 0.00 77 1016.9
20200806034036 65 127 0.0 2.0 0.00 0.00 0.00 77 1016.8
20200806033929 65 127 0.0 2.0 0.00 0.00 0.00 77 1016.9
20200806033844 66 127 0.0 2.0 0.00 0.00 0.00 77 1016.9
20200806033740 66 127 0.0 3.0 0.00 0.00 0.00 77 1016.9
20200806033641 66 127 1.0 3.0 0.00 0.00 0.00 77 1016.9
20200806033538 66 127 1.0 3.0 0.00 0.00 0.00 77 1016.9
20200806033438 66 127 1.0 3.0 0.00 0.00 0.00 77 1017.0
20200806033334 66 127 1.0 3.0 0.00 0.00 0.00 77 1016.9
20200806033227 66 127 1.0 3.0 0.00 0.00 0.00 77 1017.0
20200806033145 66 127 1.0 3.0 0.00 0.00 0.00 77 1016.9
20200806033040 66 127 1.0 3.0 0.00 0.00 0.00 77 1016.9
20200806032940 66 134 2.0 3.0 0.00 0.00 0.00 77 1016.9
20200806032836 66 138 1.0 3.0 0.00 0.00 0.00 77 1016.9
20200806032733 66 140 1.0 2.0 0.00 0.00 0.00 77 1016.9
20200806032629 66 146 0.0 2.0 0.00 0.00 0.00 77 1016.8
20200806032527 66 142 0.0 2.0 0.00 0.00 0.00 77 1016.8
20200806032442 66 142 0.0 2.0 0.00 0.00 0.00 77 1016.8
20200806032339 66 142 0.0 2.0 0.00 0.00 0.00 77 1016.8
20200806032238 66 142 1.0 2.0 0.00 0.00 0.00 77 1016.8
20200806032134 66 93 1.0 2.0 0.00 0.00 0.00 77 1016.8
20200806032030 66 93 1.0 5.0 0.00 0.00 0.00 77 1016.8
20200806031927 66 103 1.0 5.0 0.00 0.00 0.00 77 1016.8
20200806031844 66 103 1.0 5.0 0.00 0.00 0.00 77 1016.8
20200806031741 66 103 1.0 5.0 0.00 0.00 0.00 77 1016.7
20200806031633 66 103 1.0 5.0 0.00 0.00 0.00 77 1016.7
20200806031534 66 103 1.0 5.0 0.00 0.00 0.00 77 1016.7
20200806031427 67 110 2.0 5.0 0.00 0.00 0.00 76 1016.7
20200806031343 67 104 2.0 5.0 0.00 0.00 0.00 76 1016.7
20200806031239 67 101 2.0 5.0 0.00 0.00 0.00 76 1016.7
20200806031133 67 101 2.0 5.0 0.00 0.00 0.00 76 1016.7
20200806031029 67 104 2.0 5.0 0.00 0.00 0.00 75 1016.7
20200806030928 67 96 2.0 5.0 0.00 0.00 0.00 75 1016.7
20200806030827 67 109 3.0 4.0 0.00 0.00 0.00 75 1016.7
20200806030745 67 107 3.0 5.0 0.00 0.00 0.00 75 1016.6
20200806030641 67 99 3.0 5.0 0.00 0.00 0.00 75 1016.7
20200806030535 67 111 2.0 5.0 0.00 0.00 0.00 75 1016.7
20200806030431 67 107 2.0 5.0 0.00 0.00 0.00 75 1016.7
20200806030345 67 92 1.0 3.0 0.00 0.00 0.00 75 1016.7
20200806030240 67 140 1.0 3.0 0.00 0.00 0.00 75 1016.7
20200806030151 67 119 1.0 3.0 0.00 0.00 0.00 75 1016.7
20200806030037 67 108 1.0 3.0 0.00 0.00 0.00 75 1016.7
20200806025926 67 136 2.0 3.0 0.00 0.00 0.00 75 1016.7
20200806025841 67 135 2.0 3.0 0.00 0.00 0.00 75 1016.7
20200806025738 67 126 1.0 3.0 0.00 0.00 0.00 75 1016.7
20200806025632 68 123 1.0 3.0 0.00 0.00 0.00 75 1016.7
20200806025528 68 112 1.0 3.0 0.00 0.00 0.00 75 1016.7
20200806025444 68 139 1.0 3.0 0.00 0.00 0.00 75 1016.8
20200806025346 68 135 2.0 3.0 0.00 0.00 0.00 75 1016.8
20200806025242 68 135 2.0 2.0 0.00 0.00 0.00 75 1016.7
20200806025136 68 135 2.0 2.0 0.00 0.00 0.00 75 1016.8
20200806025034 68 125 2.0 2.0 0.00 0.00 0.00 75 1016.8
20200806024931 68 125 1.0 2.0 0.00 0.00 0.00 75 1016.8
20200806024826 68 125 1.0 2.0 0.00 0.00 0.00 75 1016.8
20200806024742 68 125 1.0 2.0 0.00 0.00 0.00 75 1016.8
20200806024646 68 121 0.0 2.0 0.00 0.00 0.00 74 1016.8
20200806024553 68 107 0.0 1.0 0.00 0.00 0.00 74 1016.8
20200806024437 68 107 0.0 1.0 0.00 0.00 0.00 74 1016.8
20200806024330 68 107 0.0 1.0 0.00 0.00 0.00 74 1016.8
20200806024242 68 107 0.0 1.0 0.00 0.00 0.00 74 1016.7
20200806024137 68 107 0.0 1.0 0.00 0.00 0.00 73 1016.8
20200806024033 68 107 0.0 0.0 0.00 0.00 0.00 73 1016.8
20200806023933 68 107 0.0 0.0 0.00 0.00 0.00 73 1016.8
20200806023833 68 107 0.0 1.0 0.00 0.00 0.00 73 1016.8
20200806023725 68 107 0.0 1.0 0.00 0.00 0.00 73 1016.8
20200806023640 68 107 0.0 1.0 0.00 0.00 0.00 73 1016.8
20200806023535 69 107 0.0 1.0 0.00 0.00 0.00 72 1016.8
20200806023431 69 107 0.0 2.0 0.00 0.00 0.00 72 1016.8
20200806023327 69 107 0.0 2.0 0.00 0.00 0.00 72 1016.8
20200806023226 69 107 0.0 2.0 0.00 0.00 0.00 72 1016.7
20200806023142 69 107 0.0 2.0 0.00 0.00 0.00 72 1016.7
20200806023039 69 107 0.0 3.0 0.00 0.00 0.00 72 1016.7
20200806022936 69 107 0.0 3.0 0.00 0.00 0.00 72 1016.7
20200806022832 69 107 0.0 3.0 0.00 0.00 0.00 72 1016.6
20200806022727 69 107 0.0 3.0 0.00 0.00 0.00 72 1016.7
20200806022646 69 107 0.0 3.0 0.00 0.00 0.00 72 1016.6
20200806022541 69 107 0.0 3.0 0.00 0.00 0.00 72 1016.6
20200806022438 69 101 1.0 3.0 0.00 0.00 0.00 71 1016.6
20200806022332 69 101 1.0 3.0 0.00 0.00 0.00 71 1016.6
20200806022229 69 101 1.0 3.0 0.00 0.00 0.00 71 1016.6
20200806022124 69 109 1.0 3.0 0.00 0.00 0.00 71 1016.5
20200806022044 69 113 1.0 3.0 0.00 0.00 0.00 71 1016.5
20200806021936 69 113 1.0 3.0 0.00 0.00 0.00 71 1016.5
20200806021836 69 102 1.0 3.0 0.00 0.00 0.00 71 1016.5
20200806021735 70 102 1.0 3.0 0.00 0.00 0.00 71 1016.5
20200806021632 70 107 1.0 3.0 0.00 0.00 0.00 71 1016.5
20200806021526 70 107 1.0 3.0 0.00 0.00 0.00 71 1016.4
20200806021442 70 130 1.0 3.0 0.00 0.00 0.00 71 1016.5
20200806021338 70 136 2.0 3.0 0.00 0.00 0.00 71 1016.4
20200806021232 70 117 1.0 3.0 0.00 0.00 0.00 71 1016.4
20200806021128 70 117 1.0 3.0 0.00 0.00 0.00 71 1016.4
20200806021028 70 122 2.0 3.0 0.00 0.00 0.00 71 1016.4
20200806020944 70 126 1.0 3.0 0.00 0.00 0.00 71 1016.4
20200806020843 70 132 1.0 5.0 0.00 0.00 0.00 71 1016.4
20200806020735 70 127 1.0 5.0 0.00 0.00 0.00 71 1016.4
20200806020631 70 126 1.0 5.0 0.00 0.00 0.00 71 1016.4
20200806020545 70 126 1.0 5.0 0.00 0.00 0.00 71 1016.4
20200806020439 70 130 1.0 5.0 0.00 0.00 0.00 70 1016.3
20200806020338 70 134 1.0 5.0 0.00 0.00 0.00 70 1016.3
20200806020234 70 117 2.0 5.0 0.00 0.00 0.00 70 1016.3
20200806020141 70 109 2.0 5.0 0.00 0.00 0.00 70 1016.3
20200806020038 70 113 2.0 5.0 0.00 0.00 0.00 70 1016.3
20200806015932 70 111 2.0 5.0 0.00 0.00 0.00 70 1016.3
20200806015827 70 100 2.0 4.0 0.00 0.00 0.00 70 1016.3
20200806015746 70 108 2.0 5.0 0.00 0.00 0.00 70 1016.3
20200806015640 71 96 2.0 5.0 0.00 0.00 0.00 70 1016.3
20200806015541 71 123 2.0 3.0 0.00 0.00 0.00 70 1016.3
20200806015437 71 116 2.0 3.0 0.00 0.00 0.00 69 1016.3
20200806015338 71 113 1.0 3.0 0.00 0.00 0.00 69 1016.3
20200806015229 71 101 1.0 3.0 0.00 0.00 0.00 69 1016.4
20200806015147 71 130 1.0 3.0 0.00 0.00 0.00 69 1016.4
20200806015042 71 130 1.0 3.0 0.00 0.00 0.00 69 1016.4
20200806014940 71 132 1.0 3.0 0.00 0.00 0.00 69 1016.3
20200806014837 71 132 1.0 3.0 0.00 0.00 0.00 68 1016.3
20200806014733 71 132 1.0 3.0 0.00 0.00 0.00 68 1016.4
20200806014626 71 132 1.0 3.0 0.00 0.00 0.00 68 1016.4
20200806014543 71 131 1.0 3.0 0.00 0.00 0.00 68 1016.4
20200806014437 71 132 1.0 3.0 0.00 0.00 0.00 67 1016.3
20200806014335 72 134 0.0 2.0 0.00 0.00 0.00 68 1016.3
20200806014230 72 134 0.0 1.0 0.00 0.00 0.00 68 1016.3
20200806014129 72 134 0.0 1.0 0.00 0.00 0.00 67 1016.4
20200806014029 72 134 0.0 1.0 0.00 0.00 0.00 67 1016.4
20200806013943 72 134 0.0 1.0 0.00 0.00 0.00 67 1016.4
20200806013837 72 134 0.0 1.0 0.00 0.00 0.00 67 1016.4
20200806013733 72 134 0.0 1.0 0.00 0.00 0.00 67 1016.4
20200806013627 72 134 0.0 1.0 0.00 0.00 0.00 67 1016.3
20200806013544 72 139 0.0 1.0 0.00 0.00 0.00 67 1016.4
20200806013443 72 146 0.0 1.0 0.00 0.00 0.00 67 1016.4
20200806013339 72 146 0.0 1.0 0.00 0.00 0.00 67 1016.4
20200806013234 72 146 0.0 1.0 0.00 0.00 0.00 66 1016.4
20200806013132 72 146 0.0 1.0 0.00 0.00 0.00 66 1016.4
20200806013043 72 146 0.0 1.0 0.00 0.00 0.00 66 1016.4
20200806012939 72 146 0.0 0.0 0.00 0.00 0.00 66 1016.4
20200806012838 72 146 0.0 0.0 0.00 0.00 0.00 66 1016.4
20200806012735 73 146 0.0 0.0 0.00 0.00 0.00 65 1016.3
20200806012634 73 146 0.0 1.0 0.00 0.00 0.00 65 1016.4
20200806012527 73 146 0.0 1.0 0.00 0.00 0.00 65 1016.4
20200806012441 73 146 0.0 1.0 0.00 0.00 0.00 65 1016.4
20200806012337 73 146 0.0 1.0 0.00 0.00 0.00 65 1016.4
20200806012233 73 146 0.0 2.0 0.00 0.00 0.00 64 1016.4
20200806012130 73 146 0.0 2.0 0.00 0.00 0.00 64 1016.3
20200806012029 73 146 0.0 2.0 0.00 0.00 0.00 64 1016.4
20200806011926 73 146 0.0 3.0 0.00 0.00 0.00 63 1016.4
20200806011841 73 146 0.0 3.0 0.00 0.00 0.00 63 1016.4
20200806011738 73 147 0.0 3.0 0.00 0.00 0.00 63 1016.4
20200806011635 73 147 1.0 3.0 0.00 0.00 0.00 63 1016.4
20200806011530 73 147 1.0 3.0 0.00 0.00 0.00 62 1016.4
20200806011426 73 147 1.0 3.0 0.00 0.00 0.00 62 1016.4
20200806011326 73 147 1.0 3.0 0.00 0.00 0.00 62 1016.4
20200806011241 73 147 1.0 3.0 0.00 0.00 0.00 62 1016.4
20200806011136 73 147 2.0 3.0 0.00 0.00 0.00 63 1016.4
20200806011031 73 147 2.0 3.0 0.00 0.00 0.00 63 1016.4
20200806010929 74 152 1.0 3.0 0.00 0.00 0.00 63 1016.4
20200806010843 74 153 1.0 3.0 0.00 0.00 0.00 63 1016.5
20200806010739 74 152 0.0 0.0 0.00 0.00 0.00 63 1016.5
20200806010635 74 155 0.0 0.0 0.00 0.00 0.00 63 1016.5
20200806010534 74 156 0.0 0.0 0.00 0.00 0.00 63 1016.5
20200806010430 74 158 0.0 0.0 0.00 0.00 0.00 63 1016.5
20200806010327 74 158 0.0 0.0 0.00 0.00 0.00 63 1016.5
20200806010245 74 158 0.0 0.0 0.00 0.00 0.00 63 1016.5
20200806010145 74 158 0.0 0.0 0.00 0.00 0.00 63 1016.5
20200806010036 74 158 0.0 0.0 0.00 0.00 0.00 63 1016.5
20200806005926 74 160 0.0 0.0 0.00 0.00 0.00 63 1016.5